| time (UTC) | temp F | wind direction | speed MPH | gust MPH | rain 1hr in | rain 24hr in | rain mn in | humidity % | barometer mb |
| 20260508014504 | 79 | 191 | 1.0 | 3.0 | 0.00 | 0.00 | 0.00 | 24 | 1011.0 |
| 20260508014401 | 79 | 137 | 1.0 | 3.0 | 0.00 | 0.00 | 0.00 | 24 | 1011.1 |
| 20260508014326 | 79 | 144 | 0.0 | 3.0 | 0.00 | 0.00 | 0.00 | 24 | 1011.0 |
| 20260508014201 | 79 | 161 | 0.0 | 3.0 | 0.00 | 0.00 | 0.00 | 25 | 1011.0 |
| 20260508014101 | 79 | 169 | 0.0 | 5.0 | 0.00 | 0.00 | 0.00 | 24 | 1011.0 |
| 20260508013959 | 79 | 169 | 0.0 | 5.0 | 0.00 | 0.00 | 0.00 | 24 | 1011.0 |
| 20260508013858 | 79 | 175 | 1.0 | 5.0 | 0.00 | 0.00 | 0.00 | 23 | 1011.0 |
| 20260508013758 | 79 | 163 | 2.0 | 5.0 | 0.00 | 0.00 | 0.00 | 24 | 1011.0 |
| 20260508013657 | 79 | 158 | 2.0 | 5.0 | 0.00 | 0.00 | 0.00 | 24 | 1011.0 |
| 20260508013557 | 79 | 170 | 2.0 | 5.0 | 0.00 | 0.00 | 0.00 | 24 | 1011.0 |
| 20260508013458 | 79 | 175 | 1.0 | 5.0 | 0.00 | 0.00 | 0.00 | 24 | 1011.0 |
| 20260508013355 | 79 | 140 | 1.0 | 5.0 | 0.00 | 0.00 | 0.00 | 24 | 1011.0 |
| 20260508013255 | 79 | 72 | 2.0 | 5.0 | 0.00 | 0.00 | 0.00 | 23 | 1011.0 |
| 20260508013154 | 79 | 201 | 3.0 | 5.0 | 0.00 | 0.00 | 0.00 | 23 | 1011.0 |
| 20260508013054 | 79 | 188 | 3.0 | 5.0 | 0.00 | 0.00 | 0.00 | 23 | 1011.0 |
| 20260508012953 | 79 | 173 | 3.0 | 5.0 | 0.00 | 0.00 | 0.00 | 23 | 1011.0 |
| 20260508012852 | 79 | 184 | 3.0 | 5.0 | 0.00 | 0.00 | 0.00 | 23 | 1011.0 |
| 20260508012753 | 79 | 184 | 2.0 | 5.0 | 0.00 | 0.00 | 0.00 | 24 | 1011.0 |
| 20260508012651 | 79 | 171 | 1.0 | 5.0 | 0.00 | 0.00 | 0.00 | 24 | 1011.0 |
| 20260508012552 | 80 | 156 | 1.0 | 5.0 | 0.00 | 0.00 | 0.00 | 23 | 1011.0 |
| 20260508012451 | 80 | 181 | 1.0 | 5.0 | 0.00 | 0.00 | 0.00 | 23 | 1011.1 |
| 20260508012349 | 80 | 157 | 2.0 | 5.0 | 0.00 | 0.00 | 0.00 | 22 | 1011.0 |
| 20260508012249 | 80 | 155 | 3.0 | 5.0 | 0.00 | 0.00 | 0.00 | 23 | 1011.0 |
| 20260508012219 | 80 | 162 | 3.0 | 5.0 | 0.00 | 0.00 | 0.00 | 24 | 1011.0 |
| 20260508012207 | 80 | 177 | 2.0 | 5.0 | 0.00 | 0.00 | 0.00 | 23 | 1011.1 |
| 20260508012155 | 80 | 171 | 2.0 | 4.0 | 0.00 | 0.00 | 0.00 | 24 | 1011.1 |
| 20260508012141 | 80 | 184 | 2.0 | 3.0 | 0.00 | 0.00 | 0.00 | 24 | 1011.1 |
| 20260508011636 | 80 | 163 | 0.0 | 5.0 | 0.00 | 0.00 | 0.00 | 24 | 1011.1 |
| 20260508011624 | 80 | 220 | 1.0 | 6.0 | 0.00 | 0.00 | 0.00 | 25 | 1011.1 |
| 20260508011613 | 79 | 171 | 1.0 | 6.0 | 0.00 | 0.00 | 0.00 | 25 | 1011.1 |
| 20260508011559 | 79 | 227 | 1.0 | 6.0 | 0.00 | 0.00 | 0.00 | 25 | 1011.1 |
| 20260508010936 | 79 | 202 | 3.0 | 6.0 | 0.00 | 0.00 | 0.00 | 24 | 1011.1 |
| 20260508010839 | 79 | 163 | 3.0 | 6.0 | 0.00 | 0.00 | 0.00 | 23 | 1011.2 |
| 20260508010819 | 79 | 158 | 4.0 | 6.0 | 0.00 | 0.00 | 0.00 | 24 | 1011.1 |
| 20260508010753 | 80 | 166 | 4.0 | 6.0 | 0.00 | 0.00 | 0.00 | 23 | 1011.1 |
| 20260508010433 | 80 | 182 | 2.0 | 6.0 | 0.00 | 0.00 | 0.00 | 24 | 1011.2 |
| 20260508010332 | 80 | 111 | 1.0 | 5.0 | 0.00 | 0.00 | 0.00 | 24 | 1011.2 |
| 20260508010231 | 80 | 144 | 1.0 | 6.0 | 0.00 | 0.00 | 0.00 | 24 | 1011.2 |
| 20260508010131 | 80 | 225 | 1.0 | 6.0 | 0.00 | 0.00 | 0.00 | 23 | 1011.2 |
| 20260508010029 | 80 | 263 | 1.0 | 6.0 | 0.00 | 0.00 | 0.00 | 25 | 1011.2 |
| 20260508005932 | 79 | 278 | 1.0 | 6.0 | 0.00 | 0.00 | 0.00 | 25 | 1011.2 |
| 20260508005829 | 79 | 279 | 1.0 | 6.0 | 0.00 | 0.00 | 0.00 | 24 | 1011.2 |
| 20260508005731 | 79 | 275 | 2.0 | 6.0 | 0.00 | 0.00 | 0.00 | 24 | 1011.3 |
| 20260508005629 | 79 | 265 | 2.0 | 6.0 | 0.00 | 0.00 | 0.00 | 24 | 1011.2 |
| 20260508005530 | 79 | 184 | 2.0 | 6.0 | 0.00 | 0.00 | 0.00 | 24 | 1011.3 |
| 20260508005429 | 79 | 170 | 3.0 | 6.0 | 0.00 | 0.00 | 0.00 | 24 | 1011.3 |
| 20260508005335 | 80 | 97 | 2.0 | 6.0 | 0.00 | 0.00 | 0.00 | 24 | 1011.3 |
| 20260508005317 | 80 | 82 | 1.0 | 6.0 | 0.00 | 0.00 | 0.00 | 25 | 1011.3 |
| 20260508005251 | 80 | 76 | 2.0 | 6.0 | 0.00 | 0.00 | 0.00 | 25 | 1011.3 |
| 20260508004933 | 79 | 138 | 2.0 | 6.0 | 0.00 | 0.00 | 0.00 | 25 | 1011.3 |
| 20260508004829 | 79 | 153 | 2.0 | 6.0 | 0.00 | 0.00 | 0.00 | 25 | 1011.3 |
| 20260508004731 | 79 | 161 | 2.0 | 7.0 | 0.00 | 0.00 | 0.00 | 25 | 1011.3 |
| 20260508004629 | 79 | 153 | 4.0 | 7.0 | 0.00 | 0.00 | 0.00 | 24 | 1011.3 |
| 20260508004546 | 79 | 171 | 4.0 | 7.0 | 0.00 | 0.00 | 0.00 | 25 | 1011.4 |
| 20260508004528 | 79 | 181 | 2.0 | 7.0 | 0.00 | 0.00 | 0.00 | 25 | 1011.4 |
| 20260508004517 | 79 | 244 | 2.0 | 7.0 | 0.00 | 0.00 | 0.00 | 25 | 1011.3 |
| 20260508004130 | 79 | 100 | 2.0 | 7.0 | 0.00 | 0.00 | 0.00 | 25 | 1011.4 |
| 20260508004026 | 79 | 79 | 3.0 | 7.0 | 0.00 | 0.00 | 0.00 | 25 | 1011.4 |
| 20260508004000 | 79 | 160 | 4.0 | 7.0 | 0.00 | 0.00 | 0.00 | 24 | 1011.4 |
| 20260508003946 | 79 | 171 | 4.0 | 7.0 | 0.00 | 0.00 | 0.00 | 25 | 1011.4 |
| 20260508003623 | 79 | 177 | 3.0 | 6.0 | 0.00 | 0.00 | 0.00 | 24 | 1011.4 |
| 20260508003524 | 79 | 162 | 1.0 | 4.0 | 0.00 | 0.00 | 0.00 | 26 | 1011.4 |
| 20260508003423 | 79 | 201 | 1.0 | 7.0 | 0.00 | 0.00 | 0.00 | 26 | 1011.3 |
| 20260508003322 | 79 | 220 | 1.0 | 7.0 | 0.00 | 0.00 | 0.00 | 26 | 1011.3 |
| 20260508003220 | 79 | 200 | 2.0 | 7.0 | 0.00 | 0.00 | 0.00 | 26 | 1011.3 |
| 20260508003121 | 79 | 138 | 2.0 | 7.0 | 0.00 | 0.00 | 0.00 | 26 | 1011.3 |
| 20260508003018 | 79 | 140 | 3.0 | 7.0 | 0.00 | 0.00 | 0.00 | 25 | 1011.3 |
| 20260508002919 | 79 | 163 | 2.0 | 7.0 | 0.00 | 0.00 | 0.00 | 25 | 1011.3 |
| 20260508002817 | 79 | 176 | 3.0 | 8.0 | 0.00 | 0.00 | 0.00 | 25 | 1011.3 |
| 20260508002800 | 79 | 189 | 3.0 | 8.0 | 0.00 | 0.00 | 0.00 | 25 | 1011.4 |
| 20260508002737 | 79 | 165 | 3.0 | 8.0 | 0.00 | 0.00 | 0.00 | 26 | 1011.3 |
| 20260508002415 | 79 | 292 | 3.0 | 8.0 | 0.00 | 0.00 | 0.00 | 25 | 1011.4 |
| 20260508002315 | 79 | 136 | 2.0 | 8.0 | 0.00 | 0.00 | 0.00 | 25 | 1011.5 |
| 20260508002215 | 79 | 214 | 2.0 | 8.0 | 0.00 | 0.00 | 0.00 | 26 | 1011.4 |
| 20260508002114 | 79 | 125 | 2.0 | 8.0 | 0.00 | 0.00 | 0.00 | 25 | 1011.4 |
| 20260508002012 | 79 | 123 | 3.0 | 8.0 | 0.00 | 0.00 | 0.00 | 25 | 1011.4 |
| 20260508001914 | 79 | 87 | 3.0 | 8.0 | 0.00 | 0.00 | 0.00 | 25 | 1011.3 |
| 20260508001811 | 79 | 101 | 1.0 | 4.0 | 0.00 | 0.00 | 0.00 | 26 | 1011.3 |
| 20260508001716 | 79 | 99 | 2.0 | 4.0 | 0.00 | 0.00 | 0.00 | 25 | 1011.5 |
| 20260508001609 | 80 | 84 | 3.0 | 4.0 | 0.00 | 0.00 | 0.00 | 25 | 1011.5 |
| 20260508001513 | 80 | 113 | 3.0 | 6.0 | 0.00 | 0.00 | 0.00 | 25 | 1011.5 |
| 20260508001408 | 80 | 180 | 2.0 | 6.0 | 0.00 | 0.00 | 0.00 | 24 | 1011.5 |
| 20260508001336 | 80 | 171 | 2.0 | 6.0 | 0.00 | 0.00 | 0.00 | 25 | 1011.5 |
| 20260508001319 | 80 | 184 | 1.0 | 6.0 | 0.00 | 0.00 | 0.00 | 25 | 1011.5 |
| 20260508001256 | 80 | 77 | 2.0 | 6.0 | 0.00 | 0.00 | 0.00 | 24 | 1011.5 |
| 20260508000902 | 80 | 67 | 2.0 | 6.0 | 0.00 | 0.00 | 0.00 | 24 | 1011.5 |
| 20260508000802 | 80 | 77 | 2.0 | 6.0 | 0.00 | 0.00 | 0.00 | 25 | 1011.5 |
| 20260508000702 | 80 | 83 | 2.0 | 6.0 | 0.00 | 0.00 | 0.00 | 25 | 1011.4 |
| 20260508000603 | 80 | 138 | 1.0 | 6.0 | 0.00 | 0.00 | 0.00 | 26 | 1011.4 |
| 20260508000502 | 80 | 194 | 2.0 | 6.0 | 0.00 | 0.00 | 0.00 | 25 | 1011.4 |
| 20260508000402 | 80 | 187 | 2.0 | 6.0 | 0.00 | 0.00 | 0.00 | 24 | 1011.4 |
| 20260508000305 | 80 | 188 | 2.0 | 6.0 | 0.00 | 0.00 | 0.00 | 25 | 1011.3 |
| 20260508000200 | 80 | 332 | 2.0 | 6.0 | 0.00 | 0.00 | 0.00 | 25 | 1011.4 |
| 20260508000033 | 80 | 268 | 2.0 | 6.0 | 0.00 | 0.00 | 0.00 | 25 | 1011.4 |
| 20260508000021 | 80 | 242 | 2.0 | 6.0 | 0.00 | 0.00 | 0.00 | 25 | 1011.4 |
| 20260507235702 | 80 | 186 | 2.0 | 6.0 | 0.00 | 0.00 | 0.00 | 24 | 1011.5 |
| 20260507235601 | 80 | 118 | 3.0 | 7.0 | 0.00 | 0.00 | 0.00 | 25 | 1011.4 |
| 20260507235501 | 80 | 138 | 3.0 | 7.0 | 0.00 | 0.00 | 0.00 | 24 | 1011.5 |
| 20260507235401 | 80 | 172 | 4.0 | 7.0 | 0.00 | 0.00 | 0.00 | 25 | 1011.5 |
| 20260507235306 | 80 | 144 | 4.0 | 7.0 | 0.00 | 0.00 | 0.00 | 26 | 1011.5 |
| 20260507235205 | 81 | 164 | 3.0 | 7.0 | 0.00 | 0.00 | 0.00 | 25 | 1011.5 |
| 20260507235102 | 81 | 169 | 1.0 | 7.0 | 0.00 | 0.00 | 0.00 | 25 | 1011.5 |
| 20260507235002 | 81 | 141 | 1.0 | 7.0 | 0.00 | 0.00 | 0.00 | 25 | 1011.5 |
| 20260507234901 | 81 | 171 | 2.0 | 7.0 | 0.00 | 0.00 | 0.00 | 25 | 1011.5 |
| 20260507234802 | 81 | 227 | 3.0 | 7.0 | 0.00 | 0.00 | 0.00 | 26 | 1011.5 |
| 20260507234705 | 80 | 215 | 2.0 | 7.0 | 0.00 | 0.00 | 0.00 | 26 | 1011.5 |
| 20260507234603 | 80 | 201 | 1.0 | 5.0 | 0.00 | 0.00 | 0.00 | 26 | 1011.5 |
| 20260507234503 | 80 | 86 | 1.0 | 3.0 | 0.00 | 0.00 | 0.00 | 25 | 1011.5 |
| 20260507234402 | 80 | 172 | 1.0 | 3.0 | 0.00 | 0.00 | 0.00 | 25 | 1011.5 |
| 20260507234329 | 80 | 94 | 1.0 | 3.0 | 0.00 | 0.00 | 0.00 | 25 | 1011.6 |
| 20260507234313 | 80 | 88 | 1.0 | 6.0 | 0.00 | 0.00 | 0.00 | 26 | 1011.5 |
| 20260507234250 | 80 | 66 | 1.0 | 6.0 | 0.00 | 0.00 | 0.00 | 26 | 1011.6 |
| 20260507233902 | 80 | 5 | 1.0 | 6.0 | 0.00 | 0.00 | 0.00 | 27 | 1011.5 |
| 20260507233801 | 80 | 289 | 2.0 | 6.0 | 0.00 | 0.00 | 0.00 | 24 | 1011.6 |
| 20260507233702 | 80 | 265 | 2.0 | 6.0 | 0.00 | 0.00 | 0.00 | 24 | 1011.6 |
| 20260507233601 | 81 | 282 | 2.0 | 6.0 | 0.00 | 0.00 | 0.00 | 25 | 1011.6 |
| 20260507233504 | 80 | 232 | 2.0 | 6.0 | 0.00 | 0.00 | 0.00 | 25 | 1011.6 |
| 20260507233439 | 80 | 209 | 2.0 | 8.0 | 0.00 | 0.00 | 0.00 | 25 | 1011.6 |
| 20260507233426 | 80 | 188 | 1.0 | 8.0 | 0.00 | 0.00 | 0.00 | 26 | 1011.7 |
| 20260507233103 | 80 | 198 | 3.0 | 8.0 | 0.00 | 0.00 | 0.00 | 26 | 1011.6 |
| 20260507233004 | 80 | 153 | 3.0 | 8.0 | 0.00 | 0.00 | 0.00 | 25 | 1011.7 |
| 20260507232902 | 80 | 178 | 3.0 | 8.0 | 0.00 | 0.00 | 0.00 | 26 | 1011.7 |
| 20260507232804 | 80 | 189 | 2.0 | 8.0 | 0.00 | 0.00 | 0.00 | 26 | 1011.7 |
| 20260507232734 | 80 | 212 | 3.0 | 8.0 | 0.00 | 0.00 | 0.00 | 26 | 1011.6 |
| 20260507232710 | 80 | 203 | 3.0 | 8.0 | 0.00 | 0.00 | 0.00 | 26 | 1011.7 |
| 20260507232658 | 80 | 162 | 2.0 | 8.0 | 0.00 | 0.00 | 0.00 | 26 | 1011.7 |
| 20260507232427 | 80 | 163 | 2.0 | 5.0 | 0.00 | 0.00 | 0.00 | 27 | 1011.7 |
| 20260507232136 | 80 | 60 | 2.0 | 5.0 | 0.00 | 0.00 | 0.00 | 27 | 1011.8 |
| 20260507232123 | 80 | 173 | 2.0 | 7.0 | 0.00 | 0.00 | 0.00 | 27 | 1011.7 |
| 20260507231830 | 80 | 121 | 2.0 | 7.0 | 0.00 | 0.00 | 0.00 | 28 | 1011.8 |
| 20260507231819 | 79 | 155 | 2.0 | 7.0 | 0.00 | 0.00 | 0.00 | 27 | 1011.8 |
| 20260507231754 | 79 | 96 | 2.0 | 7.0 | 0.00 | 0.00 | 0.00 | 26 | 1011.8 |
| 20260507231523 | 79 | 140 | 2.0 | 7.0 | 0.00 | 0.00 | 0.00 | 26 | 1011.9 |
| 20260507231207 | 80 | 157 | 4.0 | 7.0 | 0.00 | 0.00 | 0.00 | 26 | 1011.9 |
| 20260507231102 | 80 | 173 | 4.0 | 7.0 | 0.00 | 0.00 | 0.00 | 26 | 1011.9 |
| 20260507231001 | 80 | 162 | 3.0 | 7.0 | 0.00 | 0.00 | 0.00 | 26 | 1011.9 |
| 20260507230903 | 80 | 167 | 2.0 | 7.0 | 0.00 | 0.00 | 0.00 | 27 | 1012.0 |
| 20260507230801 | 80 | 169 | 2.0 | 6.0 | 0.00 | 0.00 | 0.00 | 27 | 1011.9 |
| 20260507230744 | 80 | 181 | 3.0 | 6.0 | 0.00 | 0.00 | 0.00 | 27 | 1011.9 |
| 20260507230721 | 80 | 131 | 3.0 | 6.0 | 0.00 | 0.00 | 0.00 | 26 | 1012.0 |
| 20260507230402 | 80 | 199 | 3.0 | 6.0 | 0.00 | 0.00 | 0.00 | 25 | 1012.0 |
| 20260507230257 | 80 | 178 | 3.0 | 6.0 | 0.00 | 0.00 | 0.00 | 26 | 1012.0 |
| 20260507230157 | 80 | 153 | 3.0 | 6.0 | 0.00 | 0.00 | 0.00 | 27 | 1012.0 |
| 20260507230119 | 80 | 182 | 4.0 | 6.0 | 0.00 | 0.00 | 0.00 | 26 | 1012.0 |
| 20260507230105 | 80 | 175 | 3.0 | 6.0 | 0.00 | 0.00 | 0.00 | 26 | 1012.0 |
| 20260507230053 | 80 | 189 | 2.0 | 5.0 | 0.00 | 0.00 | 0.00 | 27 | 1012.0 |
| 20260507225822 | 79 | 178 | 2.0 | 5.0 | 0.00 | 0.00 | 0.00 | 26 | 1012.1 |
| 20260507225451 | 79 | 238 | 2.0 | 5.0 | 0.00 | 0.00 | 0.00 | 27 | 1012.1 |
| 20260507225353 | 79 | 257 | 2.0 | 6.0 | 0.00 | 0.00 | 0.00 | 27 | 1012.1 |
| 20260507225252 | 79 | 254 | 3.0 | 6.0 | 0.00 | 0.00 | 0.00 | 27 | 1012.1 |
| 20260507225232 | 79 | 285 | 3.0 | 6.0 | 0.00 | 0.00 | 0.00 | 28 | 1012.1 |
| 20260507225206 | 80 | 333 | 3.0 | 6.0 | 0.00 | 0.00 | 0.00 | 28 | 1012.1 |
| 20260507224847 | 80 | 296 | 2.0 | 6.0 | 0.00 | 0.00 | 0.00 | 28 | 1012.2 |
| 20260507224749 | 80 | 305 | 1.0 | 6.0 | 0.00 | 0.00 | 0.00 | 28 | 1012.2 |
| 20260507224645 | 79 | 157 | 2.0 | 6.0 | 0.00 | 0.00 | 0.00 | 28 | 1012.2 |
| 20260507224546 | 80 | 121 | 2.0 | 6.0 | 0.00 | 0.00 | 0.00 | 26 | 1012.2 |
| 20260507224445 | 79 | 261 | 2.0 | 6.0 | 0.00 | 0.00 | 0.00 | 28 | 1012.3 |
| 20260507224344 | 79 | 319 | 1.0 | 6.0 | 0.00 | 0.00 | 0.00 | 28 | 1012.3 |
| 20260507224242 | 79 | 97 | 2.0 | 6.0 | 0.00 | 0.00 | 0.00 | 27 | 1012.3 |
| 20260507224148 | 79 | 150 | 3.0 | 6.0 | 0.00 | 0.00 | 0.00 | 27 | 1012.3 |
| 20260507224041 | 79 | 162 | 3.0 | 6.0 | 0.00 | 0.00 | 0.00 | 27 | 1012.3 |
| 20260507224013 | 79 | 163 | 2.0 | 6.0 | 0.00 | 0.00 | 0.00 | 26 | 1012.4 |
| 20260507224001 | 79 | 155 | 1.0 | 5.0 | 0.00 | 0.00 | 0.00 | 26 | 1012.3 |
| 20260507223640 | 79 | 33 | 2.0 | 5.0 | 0.00 | 0.00 | 0.00 | 26 | 1012.4 |
| 20260507223540 | 79 | 337 | 2.0 | 5.0 | 0.00 | 0.00 | 0.00 | 26 | 1012.4 |
| 20260507223504 | 79 | 316 | 2.0 | 5.0 | 0.00 | 0.00 | 0.00 | 26 | 1012.4 |
| 20260507223451 | 79 | 315 | 3.0 | 5.0 | 0.00 | 0.00 | 0.00 | 26 | 1012.4 |
| 20260507223438 | 79 | 352 | 3.0 | 5.0 | 0.00 | 0.00 | 0.00 | 25 | 1012.4 |
| 20260507223424 | 79 | 26 | 2.0 | 5.0 | 0.00 | 0.00 | 0.00 | 26 | 1012.5 |
| 20260507222900 | 80 | 64 | 2.0 | 5.0 | 0.00 | 0.00 | 0.00 | 26 | 1012.5 |
| 20260507222849 | 80 | 115 | 3.0 | 5.0 | 0.00 | 0.00 | 0.00 | 25 | 1012.6 |
| 20260507222837 | 80 | 150 | 3.0 | 5.0 | 0.00 | 0.00 | 0.00 | 25 | 1012.6 |
| 20260507222550 | 80 | 200 | 2.0 | 5.0 | 0.00 | 0.00 | 0.00 | 26 | 1012.6 |
| 20260507222230 | 80 | 119 | 1.0 | 5.0 | 0.00 | 0.00 | 0.00 | 26 | 1012.6 |
| 20260507222213 | 80 | 184 | 1.0 | 5.0 | 0.00 | 0.00 | 0.00 | 26 | 1012.6 |
| 20260507222150 | 80 | 202 | 2.0 | 5.0 | 0.00 | 0.00 | 0.00 | 26 | 1012.6 |
| 20260507221830 | 80 | 169 | 2.0 | 5.0 | 0.00 | 0.00 | 0.00 | 28 | 1012.6 |
| 20260507221730 | 80 | 219 | 2.0 | 5.0 | 0.00 | 0.00 | 0.00 | 26 | 1012.7 |
| 20260507221629 | 80 | 162 | 2.0 | 5.0 | 0.00 | 0.00 | 0.00 | 26 | 1012.7 |
| 20260507221529 | 80 | 188 | 2.0 | 5.0 | 0.00 | 0.00 | 0.00 | 27 | 1012.7 |
| 20260507221438 | 80 | 240 | 2.0 | 5.0 | 0.00 | 0.00 | 0.00 | 26 | 1012.7 |
| 20260507221424 | 80 | 191 | 2.0 | 4.0 | 0.00 | 0.00 | 0.00 | 28 | 1012.8 |
| 20260507221412 | 80 | 173 | 1.0 | 4.0 | 0.00 | 0.00 | 0.00 | 28 | 1012.8 |
| 20260507221359 | 79 | 155 | 2.0 | 4.0 | 0.00 | 0.00 | 0.00 | 28 | 1012.7 |
| 20260507221116 | 79 | 134 | 1.0 | 4.0 | 0.00 | 0.00 | 0.00 | 27 | 1012.8 |
| 20260507220725 | 79 | 184 | 2.0 | 6.0 | 0.00 | 0.00 | 0.00 | 27 | 1012.8 |
| 20260507220706 | 79 | 154 | 0.0 | 6.0 | 0.00 | 0.00 | 0.00 | 26 | 1012.8 |
| 20260507220643 | 79 | 200 | 1.0 | 9.0 | 0.00 | 0.00 | 0.00 | 27 | 1012.8 |
| 20260507220322 | 79 | 187 | 2.0 | 9.0 | 0.00 | 0.00 | 0.00 | 28 | 1012.9 |
| 20260507220223 | 79 | 236 | 2.0 | 9.0 | 0.00 | 0.00 | 0.00 | 27 | 1012.9 |
| 20260507220121 | 79 | 232 | 2.0 | 9.0 | 0.00 | 0.00 | 0.00 | 27 | 1012.9 |
| 20260507220020 | 79 | 186 | 2.0 | 9.0 | 0.00 | 0.00 | 0.00 | 28 | 1012.9 |
| 20260507215919 | 79 | 141 | 3.0 | 9.0 | 0.00 | 0.00 | 0.00 | 27 | 1013.0 |
| 20260507215818 | 79 | 173 | 4.0 | 9.0 | 0.00 | 0.00 | 0.00 | 28 | 1013.0 |
| 20260507215718 | 79 | 165 | 5.0 | 9.0 | 0.00 | 0.00 | 0.00 | 28 | 1012.9 |
| 20260507215617 | 79 | 186 | 4.0 | 7.0 | 0.00 | 0.00 | 0.00 | 28 | 1013.0 |
| 20260507215517 | 79 | 168 | 4.0 | 7.0 | 0.00 | 0.00 | 0.00 | 27 | 1013.0 |
| 20260507215416 | 79 | 110 | 4.0 | 7.0 | 0.00 | 0.00 | 0.00 | 26 | 1013.0 |
| 20260507215315 | 79 | 184 | 3.0 | 6.0 | 0.00 | 0.00 | 0.00 | 27 | 1013.0 |
| 20260507215242 | 79 | 181 | 3.0 | 5.0 | 0.00 | 0.00 | 0.00 | 29 | 1013.1 |
| 20260507215228 | 79 | 211 | 3.0 | 5.0 | 0.00 | 0.00 | 0.00 | 29 | 1013.0 |
| 20260507215204 | 79 | 157 | 2.0 | 5.0 | 0.00 | 0.00 | 0.00 | 28 | 1013.1 |
| 20260507215151 | 78 | 196 | 2.0 | 4.0 | 0.00 | 0.00 | 0.00 | 29 | 1013.0 |
| 20260507214611 | 78 | 162 | 2.0 | 6.0 | 0.00 | 0.00 | 0.00 | 28 | 1013.0 |
| 20260507214539 | 78 | 117 | 2.0 | 6.0 | 0.00 | 0.00 | 0.00 | 28 | 1013.1 |
| 20260507214525 | 78 | 68 | 2.0 | 6.0 | 0.00 | 0.00 | 0.00 | 28 | 1013.1 |
| 20260507214512 | 78 | 74 | 1.0 | 6.0 | 0.00 | 0.00 | 0.00 | 28 | 1013.1 |
| 20260507214500 | 78 | 231 | 2.0 | 6.0 | 0.00 | 0.00 | 0.00 | 27 | 1013.1 |
| 20260507214449 | 78 | 190 | 2.0 | 6.0 | 0.00 | 0.00 | 0.00 | 27 | 1013.1 |
| 20260507214425 | 78 | 186 | 3.0 | 6.0 | 0.00 | 0.00 | 0.00 | 26 | 1013.2 |
| 20260507214154 | 78 | 300 | 1.0 | 6.0 | 0.00 | 0.00 | 0.00 | 27 | 1013.2 |
| 20260507213852 | 78 | 176 | 3.0 | 7.0 | 0.00 | 0.00 | 0.00 | 28 | 1013.2 |
| 20260507213338 | 78 | 103 | 4.0 | 7.0 | 0.00 | 0.00 | 0.00 | 28 | 1013.2 |
| 20260507213323 | 78 | 171 | 2.0 | 7.0 | 0.00 | 0.00 | 0.00 | 28 | 1013.2 |
| 20260507212959 | 78 | 231 | 2.0 | 7.0 | 0.00 | 0.00 | 0.00 | 29 | 1013.3 |
| 20260507212859 | 78 | 212 | 3.0 | 7.0 | 0.00 | 0.00 | 0.00 | 28 | 1013.3 |
| 20260507212759 | 78 | 234 | 3.0 | 7.0 | 0.00 | 0.00 | 0.00 | 29 | 1013.3 |
| 20260507212658 | 78 | 207 | 4.0 | 7.0 | 0.00 | 0.00 | 0.00 | 28 | 1013.3 |
| 20260507212557 | 78 | 254 | 3.0 | 7.0 | 0.00 | 0.00 | 0.00 | 28 | 1013.3 |
| 20260507212457 | 78 | 275 | 2.0 | 7.0 | 0.00 | 0.00 | 0.00 | 31 | 1013.3 |
| 20260507212356 | 78 | 252 | 3.0 | 7.0 | 0.00 | 0.00 | 0.00 | 31 | 1013.3 |
| 20260507212255 | 78 | 307 | 3.0 | 7.0 | 0.00 | 0.00 | 0.00 | 30 | 1013.3 |
| 20260507212155 | 78 | 261 | 3.0 | 7.0 | 0.00 | 0.00 | 0.00 | 31 | 1013.3 |
| 20260507212053 | 78 | 253 | 2.0 | 7.0 | 0.00 | 0.00 | 0.00 | 30 | 1013.4 |
| 20260507212017 | 78 | 266 | 4.0 | 7.0 | 0.00 | 0.00 | 0.00 | 30 | 1013.4 |
| 20260507212006 | 78 | 277 | 4.0 | 7.0 | 0.00 | 0.00 | 0.00 | 29 | 1013.4 |
| 20260507211953 | 78 | 315 | 3.0 | 7.0 | 0.00 | 0.00 | 0.00 | 28 | 1013.4 |
| 20260507211941 | 79 | 261 | 2.0 | 7.0 | 0.00 | 0.00 | 0.00 | 30 | 1013.4 |
| 20260507211354 | 78 | 144 | 2.0 | 7.0 | 0.00 | 0.00 | 0.00 | 30 | 1013.4 |
| 20260507211250 | 78 | 184 | 1.0 | 7.0 | 0.00 | 0.00 | 0.00 | 30 | 1013.4 |
| 20260507211148 | 78 | 198 | 1.0 | 7.0 | 0.00 | 0.00 | 0.00 | 30 | 1013.4 |
| 20260507211049 | 78 | 168 | 2.0 | 7.0 | 0.00 | 0.00 | 0.00 | 31 | 1013.5 |
| 20260507210948 | 78 | 153 | 3.0 | 7.0 | 0.00 | 0.00 | 0.00 | 30 | 1013.5 |
| 20260507210849 | 78 | 147 | 4.0 | 7.0 | 0.00 | 0.00 | 0.00 | 29 | 1013.5 |
| 20260507210747 | 78 | 138 | 4.0 | 7.0 | 0.00 | 0.00 | 0.00 | 29 | 1013.5 |
| 20260507210653 | 78 | 128 | 4.0 | 7.0 | 0.00 | 0.00 | 0.00 | 29 | 1013.5 |
| 20260507210545 | 78 | 163 | 2.0 | 7.0 | 0.00 | 0.00 | 0.00 | 29 | 1013.6 |
| 20260507210447 | 78 | 248 | 2.0 | 8.0 | 0.00 | 0.00 | 0.00 | 30 | 1013.6 |
| 20260507210344 | 78 | 206 | 1.0 | 8.0 | 0.00 | 0.00 | 0.00 | 30 | 1013.6 |
| 20260507210314 | 78 | 188 | 2.0 | 8.0 | 0.00 | 0.00 | 0.00 | 31 | 1013.6 |
| 20260507210301 | 77 | 226 | 2.0 | 9.0 | 0.00 | 0.00 | 0.00 | 30 | 1013.6 |
| 20260507205955 | 77 | 159 | 2.0 | 9.0 | 0.00 | 0.00 | 0.00 | 30 | 1013.7 |
| 20260507205944 | 77 | 274 | 2.0 | 9.0 | 0.00 | 0.00 | 0.00 | 30 | 1013.7 |
| 20260507205932 | 77 | 207 | 4.0 | 9.0 | 0.00 | 0.00 | 0.00 | 30 | 1013.7 |
| 20260507205919 | 77 | 148 | 5.0 | 9.0 | 0.00 | 0.00 | 0.00 | 31 | 1013.8 |
| 20260507205907 | 77 | 160 | 4.0 | 9.0 | 0.00 | 0.00 | 0.00 | 31 | 1013.8 |
| 20260507205403 | 77 | 216 | 4.0 | 9.0 | 0.00 | 0.00 | 0.00 | 32 | 1013.8 |
| 20260507205035 | 77 | 157 | 4.0 | 8.0 | 0.00 | 0.00 | 0.00 | 30 | 1013.8 |
| 20260507204937 | 77 | 176 | 4.0 | 8.0 | 0.00 | 0.00 | 0.00 | 31 | 1013.7 |
| 20260507204834 | 77 | 163 | 3.0 | 8.0 | 0.00 | 0.00 | 0.00 | 32 | 1013.8 |
| 20260507204733 | 77 | 165 | 2.0 | 10.0 | 0.00 | 0.00 | 0.00 | 33 | 1013.8 |
| 20260507204633 | 76 | 205 | 2.0 | 12.0 | 0.00 | 0.00 | 0.00 | 32 | 1013.8 |
| 20260507204532 | 76 | 189 | 3.0 | 12.0 | 0.00 | 0.00 | 0.00 | 31 | 1013.7 |
| 20260507204432 | 76 | 261 | 2.0 | 12.0 | 0.00 | 0.00 | 0.00 | 32 | 1013.8 |
| 20260507204325 | 76 | 282 | 4.0 | 12.0 | 0.00 | 0.00 | 0.00 | 33 | 1013.8 |
| 20260507204226 | 76 | 165 | 4.0 | 12.0 | 0.00 | 0.00 | 0.00 | 33 | 1013.9 |
| 20260507204124 | 76 | 161 | 3.0 | 12.0 | 0.00 | 0.00 | 0.00 | 34 | 1013.8 |
| 20260507204024 | 76 | 146 | 2.0 | 12.0 | 0.00 | 0.00 | 0.00 | 33 | 1013.8 |
| 20260507203923 | 76 | 134 | 5.0 | 12.0 | 0.00 | 0.00 | 0.00 | 32 | 1013.9 |
| 20260507203822 | 76 | 178 | 6.0 | 12.0 | 0.00 | 0.00 | 0.00 | 32 | 1013.9 |
| 20260507203735 | 76 | 187 | 4.0 | 9.0 | 0.00 | 0.00 | 0.00 | 33 | 1013.9 |
| 20260507203719 | 76 | 159 | 4.0 | 9.0 | 0.00 | 0.00 | 0.00 | 34 | 1013.9 |
| 20260507203707 | 76 | 169 | 4.0 | 9.0 | 0.00 | 0.00 | 0.00 | 34 | 1013.9 |
| 20260507203644 | 76 | 129 | 5.0 | 9.0 | 0.00 | 0.00 | 0.00 | 35 | 1013.8 |
| 20260507203343 | 76 | 169 | 5.0 | 12.0 | 0.00 | 0.00 | 0.00 | 34 | 1013.9 |
| 20260507203020 | 76 | 157 | 2.0 | 12.0 | 0.00 | 0.00 | 0.00 | 33 | 1013.8 |
| 20260507202917 | 76 | 82 | 1.0 | 12.0 | 0.00 | 0.00 | 0.00 | 33 | 1013.8 |
| 20260507202816 | 76 | 104 | 1.0 | 12.0 | 0.00 | 0.00 | 0.00 | 34 | 1013.8 |
| 20260507202715 | 76 | 272 | 1.0 | 12.0 | 0.00 | 0.00 | 0.00 | 34 | 1013.8 |
| 20260507202609 | 76 | 186 | 3.0 | 12.0 | 0.00 | 0.00 | 0.00 | 33 | 1013.9 |
| 20260507202516 | 76 | 187 | 4.0 | 12.0 | 0.00 | 0.00 | 0.00 | 35 | 1013.8 |
| 20260507202408 | 76 | 159 | 6.0 | 12.0 | 0.00 | 0.00 | 0.00 | 32 | 1013.9 |
| 20260507202307 | 76 | 155 | 6.0 | 12.0 | 0.00 | 0.00 | 0.00 | 33 | 1013.9 |
| 20260507202207 | 76 | 158 | 4.0 | 9.0 | 0.00 | 0.00 | 0.00 | 34 | 1013.9 |
| 20260507202106 | 76 | 144 | 4.0 | 9.0 | 0.00 | 0.00 | 0.00 | 33 | 1013.8 |
| 20260507202013 | 76 | 135 | 4.0 | 9.0 | 0.00 | 0.00 | 0.00 | 32 | 1013.8 |
| 20260507201903 | 76 | 130 | 4.0 | 9.0 | 0.00 | 0.00 | 0.00 | 32 | 1013.9 |
| 20260507201801 | 76 | 169 | 3.0 | 9.0 | 0.00 | 0.00 | 0.00 | 32 | 1013.9 |
| 20260507201701 | 76 | 115 | 4.0 | 8.0 | 0.00 | 0.00 | 0.00 | 31 | 1013.9 |
| 20260507201603 | 76 | 259 | 3.0 | 8.0 | 0.00 | 0.00 | 0.00 | 31 | 1013.9 |
| 20260507201515 | 76 | 249 | 4.0 | 8.0 | 0.00 | 0.00 | 0.00 | 32 | 1013.9 |
| 20260507201403 | 76 | 215 | 4.0 | 8.0 | 0.00 | 0.00 | 0.00 | 32 | 1013.9 |
| 20260507201305 | 76 | 216 | 4.0 | 8.0 | 0.00 | 0.00 | 0.00 | 32 | 1013.9 |
| 20260507201203 | 76 | 106 | 4.0 | 8.0 | 0.00 | 0.00 | 0.00 | 33 | 1014.0 |
| 20260507201103 | 76 | 255 | 4.0 | 8.0 | 0.00 | 0.00 | 0.00 | 31 | 1014.0 |
| 20260507201010 | 76 | 155 | 4.0 | 8.0 | 0.00 | 0.00 | 0.00 | 33 | 1014.0 |
| 20260507200933 | 76 | 230 | 3.0 | 8.0 | 0.00 | 0.00 | 0.00 | 34 | 1014.1 |
| 20260507200923 | 76 | 188 | 2.0 | 8.0 | 0.00 | 0.00 | 0.00 | 36 | 1014.1 |
| 20260507200601 | 76 | 157 | 2.0 | 8.0 | 0.00 | 0.00 | 0.00 | 34 | 1014.1 |
| 20260507200515 | 76 | 183 | 2.0 | 8.0 | 0.00 | 0.00 | 0.00 | 33 | 1014.1 |
| 20260507200401 | 76 | 171 | 2.0 | 8.0 | 0.00 | 0.00 | 0.00 | 33 | 1014.1 |
| 20260507200303 | 76 | 151 | 4.0 | 8.0 | 0.00 | 0.00 | 0.00 | 33 | 1014.1 |
| 20260507200202 | 76 | 222 | 3.0 | 8.0 | 0.00 | 0.00 | 0.00 | 33 | 1014.2 |
| 20260507200103 | 76 | 197 | 2.0 | 8.0 | 0.00 | 0.00 | 0.00 | 34 | 1014.1 |
| 20260507200045 | 76 | 70 | 4.0 | 11.0 | 0.00 | 0.00 | 0.00 | 36 | 1014.1 |
| 20260507200021 | 76 | 156 | 3.0 | 11.0 | 0.00 | 0.00 | 0.00 | 36 | 1014.1 |
| 20260507195700 | 75 | 213 | 1.0 | 11.0 | 0.00 | 0.00 | 0.00 | 38 | 1014.1 |
| 20260507195602 | 75 | 282 | 2.0 | 11.0 | 0.00 | 0.00 | 0.00 | 36 | 1014.1 |
| 20260507195504 | 75 | 206 | 2.0 | 11.0 | 0.00 | 0.00 | 0.00 | 37 | 1014.2 |
| 20260507195401 | 75 | 156 | 4.0 | 11.0 | 0.00 | 0.00 | 0.00 | 37 | 1014.2 |
| 20260507195305 | 74 | 213 | 4.0 | 11.0 | 0.00 | 0.00 | 0.00 | 37 | 1014.2 |
| 20260507195203 | 74 | 170 | 3.0 | 11.0 | 0.00 | 0.00 | 0.00 | 37 | 1014.3 |
| 20260507195101 | 74 | 194 | 3.0 | 11.0 | 0.00 | 0.00 | 0.00 | 37 | 1014.2 |
| 20260507195006 | 74 | 182 | 4.0 | 9.0 | 0.00 | 0.00 | 0.00 | 37 | 1014.3 |
| 20260507194902 | 74 | 201 | 3.0 | 9.0 | 0.00 | 0.00 | 0.00 | 36 | 1014.3 |
| 20260507194830 | 74 | 165 | 2.0 | 12.0 | 0.00 | 0.00 | 0.00 | 36 | 1014.3 |
| 20260507194816 | 74 | 284 | 4.0 | 12.0 | 0.00 | 0.00 | 0.00 | 36 | 1014.3 |
| 20260507194805 | 74 | 211 | 5.0 | 12.0 | 0.00 | 0.00 | 0.00 | 36 | 1014.3 |
| 20260507194521 | 74 | 199 | 4.0 | 12.0 | 0.00 | 0.00 | 0.00 | 37 | 1014.4 |
| 20260507194158 | 74 | 217 | 4.0 | 12.0 | 0.00 | 0.00 | 0.00 | 38 | 1014.4 |
| 20260507194058 | 74 | 153 | 6.0 | 12.0 | 0.00 | 0.00 | 0.00 | 37 | 1014.3 |
| 20260507194002 | 74 | 121 | 6.0 | 12.0 | 0.00 | 0.00 | 0.00 | 38 | 1014.3 |
| 20260507193930 | 74 | 195 | 3.0 | 12.0 | 0.00 | 0.00 | 0.00 | 39 | 1014.4 |
| 20260507193916 | 74 | 158 | 5.0 | 10.0 | 0.00 | 0.00 | 0.00 | 39 | 1014.4 |
| 20260507193555 | 74 | 159 | 6.0 | 10.0 | 0.00 | 0.00 | 0.00 | 38 | 1014.4 |
| 20260507193518 | 74 | 179 | 6.0 | 10.0 | 0.00 | 0.00 | 0.00 | 40 | 1014.4 |
| 20260507193455 | 74 | 144 | 4.0 | 10.0 | 0.00 | 0.00 | 0.00 | 39 | 1014.4 |
| 20260507193443 | 74 | 184 | 5.0 | 9.0 | 0.00 | 0.00 | 0.00 | 39 | 1014.4 |
| 20260507193051 | 74 | 164 | 6.0 | 9.0 | 0.00 | 0.00 | 0.00 | 38 | 1014.5 |
| 20260507193034 | 74 | 185 | 6.0 | 9.0 | 0.00 | 0.00 | 0.00 | 38 | 1014.5 |
| 20260507193009 | 74 | 184 | 6.0 | 9.0 | 0.00 | 0.00 | 0.00 | 39 | 1014.5 |
| 20260507192649 | 74 | 207 | 4.0 | 9.0 | 0.00 | 0.00 | 0.00 | 39 | 1014.4 |
| 20260507192631 | 74 | 130 | 4.0 | 9.0 | 0.00 | 0.00 | 0.00 | 37 | 1014.5 |
| 20260507192619 | 74 | 161 | 2.0 | 9.0 | 0.00 | 0.00 | 0.00 | 37 | 1014.5 |
| 20260507192247 | 74 | 188 | 3.0 | 9.0 | 0.00 | 0.00 | 0.00 | 34 | 1014.5 |
| 20260507192146 | 74 | 186 | 3.0 | 9.0 | 0.00 | 0.00 | 0.00 | 36 | 1014.5 |
| 20260507192046 | 74 | 190 | 3.0 | 9.0 | 0.00 | 0.00 | 0.00 | 37 | 1014.6 |
| 20260507192026 | 74 | 119 | 4.0 | 9.0 | 0.00 | 0.00 | 0.00 | 37 | 1014.6 |
| 20260507192002 | 74 | 159 | 3.0 | 9.0 | 0.00 | 0.00 | 0.00 | 37 | 1014.6 |
| 20260507191642 | 74 | 144 | 3.0 | 9.0 | 0.00 | 0.00 | 0.00 | 39 | 1014.6 |
| 20260507191555 | 74 | 163 | 4.0 | 9.0 | 0.00 | 0.00 | 0.00 | 37 | 1014.6 |
| 20260507191541 | 74 | 202 | 4.0 | 9.0 | 0.00 | 0.00 | 0.00 | 38 | 1014.6 |
| 20260507191518 | 74 | 250 | 4.0 | 9.0 | 0.00 | 0.00 | 0.00 | 38 | 1014.6 |
| 20260507191503 | 73 | 230 | 4.0 | 8.0 | 0.00 | 0.00 | 0.00 | 38 | 1014.6 |
| 20260507191231 | 73 | 132 | 3.0 | 8.0 | 0.00 | 0.00 | 0.00 | 38 | 1014.6 |
| 20260507190949 | 73 | 50 | 4.0 | 8.0 | 0.00 | 0.00 | 0.00 | 37 | 1014.6 |
| 20260507190938 | 73 | 133 | 3.0 | 8.0 | 0.00 | 0.00 | 0.00 | 39 | 1014.6 |
| 20260507190924 | 73 | 115 | 4.0 | 8.0 | 0.00 | 0.00 | 0.00 | 37 | 1014.6 |
| 20260507190334 | 73 | 235 | 5.0 | 9.0 | 0.00 | 0.00 | 0.00 | 38 | 1014.6 |
| 20260507190304 | 73 | 175 | 4.0 | 9.0 | 0.00 | 0.00 | 0.00 | 39 | 1014.6 |
| 20260507190251 | 73 | 182 | 3.0 | 9.0 | 0.00 | 0.00 | 0.00 | 39 | 1014.6 |
| 20260507185931 | 73 | 275 | 3.0 | 9.0 | 0.00 | 0.00 | 0.00 | 39 | 1014.6 |
| 20260507185830 | 73 | 200 | 4.0 | 9.0 | 0.00 | 0.00 | 0.00 | 38 | 1014.6 |
| 20260507185729 | 73 | 195 | 2.0 | 9.0 | 0.00 | 0.00 | 0.00 | 39 | 1014.6 |
| 20260507185629 | 73 | 52 | 1.0 | 10.0 | 0.00 | 0.00 | 0.00 | 41 | 1014.6 |
| 20260507185553 | 73 | 208 | 3.0 | 10.0 | 0.00 | 0.00 | 0.00 | 39 | 1014.6 |
| 20260507185527 | 72 | 65 | 4.0 | 10.0 | 0.00 | 0.00 | 0.00 | 39 | 1014.6 |
| 20260507185517 | 73 | 248 | 2.0 | 10.0 | 0.00 | 0.00 | 0.00 | 38 | 1014.6 |
| 20260507185502 | 72 | 160 | 2.0 | 10.0 | 0.00 | 0.00 | 0.00 | 40 | 1014.6 |
| 20260507185232 | 72 | 250 | 3.0 | 10.0 | 0.00 | 0.00 | 0.00 | 41 | 1014.7 |
| 20260507185219 | 72 | 236 | 4.0 | 10.0 | 0.00 | 0.00 | 0.00 | 41 | 1014.7 |
| 20260507184631 | 72 | 134 | 3.0 | 9.0 | 0.00 | 0.00 | 0.00 | 41 | 1014.7 |
| 20260507184528 | 72 | 210 | 5.0 | 9.0 | 0.00 | 0.00 | 0.00 | 41 | 1014.7 |
| 20260507184429 | 72 | 171 | 6.0 | 9.0 | 0.00 | 0.00 | 0.00 | 39 | 1014.7 |
| 20260507184329 | 72 | 272 | 3.0 | 8.0 | 0.00 | 0.00 | 0.00 | 41 | 1014.7 |
| 20260507184226 | 72 | 269 | 3.0 | 8.0 | 0.00 | 0.00 | 0.00 | 41 | 1014.7 |
| 20260507184126 | 72 | 167 | 4.0 | 8.0 | 0.00 | 0.00 | 0.00 | 40 | 1014.7 |
| 20260507184024 | 72 | 147 | 4.0 | 8.0 | 0.00 | 0.00 | 0.00 | 41 | 1014.7 |
| 20260507183925 | 73 | 161 | 3.0 | 5.0 | 0.00 | 0.00 | 0.00 | 41 | 1014.7 |
| 20260507183823 | 72 | 132 | 2.0 | 5.0 | 0.00 | 0.00 | 0.00 | 42 | 1014.7 |
| 20260507183723 | 72 | 225 | 2.0 | 5.0 | 0.00 | 0.00 | 0.00 | 43 | 1014.8 |
| 20260507183621 | 72 | 197 | 3.0 | 10.0 | 0.00 | 0.00 | 0.00 | 42 | 1014.7 |
| 20260507183521 | 72 | 256 | 3.0 | 10.0 | 0.00 | 0.00 | 0.00 | 42 | 1014.7 |
| 20260507183419 | 72 | 190 | 2.0 | 10.0 | 0.00 | 0.00 | 0.00 | 42 | 1014.8 |
| 20260507183325 | 72 | 207 | 2.0 | 10.0 | 0.00 | 0.00 | 0.00 | 42 | 1014.8 |
| 20260507183219 | 72 | 227 | 1.0 | 10.0 | 0.00 | 0.00 | 0.00 | 42 | 1014.8 |
| 20260507183122 | 72 | 263 | 1.0 | 10.0 | 0.00 | 0.00 | 0.00 | 42 | 1014.8 |
| 20260507183016 | 72 | 216 | 2.0 | 10.0 | 0.00 | 0.00 | 0.00 | 43 | 1014.9 |
| 20260507182917 | 72 | 176 | 3.0 | 10.0 | 0.00 | 0.00 | 0.00 | 43 | 1014.9 |
| 20260507182815 | 72 | 222 | 5.0 | 10.0 | 0.00 | 0.00 | 0.00 | 42 | 1014.9 |
| 20260507182715 | 72 | 218 | 4.0 | 10.0 | 0.00 | 0.00 | 0.00 | 43 | 1014.8 |
| 20260507182636 | 72 | 254 | 2.0 | 7.0 | 0.00 | 0.00 | 0.00 | 43 | 1014.9 |
| 20260507182623 | 72 | 263 | 2.0 | 6.0 | 0.00 | 0.00 | 0.00 | 43 | 1014.9 |
| 20260507182558 | 72 | 123 | 3.0 | 6.0 | 0.00 | 0.00 | 0.00 | 43 | 1014.8 |
| 20260507182547 | 72 | 134 | 4.0 | 6.0 | 0.00 | 0.00 | 0.00 | 42 | 1014.9 |
| 20260507182535 | 72 | 148 | 3.0 | 6.0 | 0.00 | 0.00 | 0.00 | 43 | 1014.9 |
| 20260507182522 | 72 | 284 | 2.0 | 6.0 | 0.00 | 0.00 | 0.00 | 43 | 1014.8 |
| 20260507181710 | 71 | 170 | 3.0 | 12.0 | 0.00 | 0.00 | 0.00 | 45 | 1014.9 |
| 20260507181611 | 71 | 257 | 3.0 | 12.0 | 0.00 | 0.00 | 0.00 | 45 | 1014.8 |
| 20260507181509 | 71 | 171 | 3.0 | 12.0 | 0.00 | 0.00 | 0.00 | 45 | 1014.8 |
| 20260507181406 | 71 | 148 | 1.0 | 12.0 | 0.00 | 0.00 | 0.00 | 45 | 1014.9 |
| 20260507181305 | 71 | 190 | 2.0 | 12.0 | 0.00 | 0.00 | 0.00 | 44 | 1014.8 |
| 20260507181203 | 71 | 178 | 3.0 | 12.0 | 0.00 | 0.00 | 0.00 | 45 | 1014.8 |
| 20260507181104 | 71 | 189 | 5.0 | 12.0 | 0.00 | 0.00 | 0.00 | 44 | 1014.9 |
| 20260507181003 | 71 | 157 | 5.0 | 12.0 | 0.00 | 0.00 | 0.00 | 44 | 1014.9 |
| 20260507180905 | 71 | 177 | 4.0 | 12.0 | 0.00 | 0.00 | 0.00 | 45 | 1014.9 |
| 20260507180801 | 71 | 239 | 2.0 | 9.0 | 0.00 | 0.00 | 0.00 | 44 | 1014.9 |
| 20260507180736 | 71 | 194 | 2.0 | 9.0 | 0.00 | 0.00 | 0.00 | 45 | 1014.9 |
| 20260507180724 | 71 | 161 | 2.0 | 9.0 | 0.00 | 0.00 | 0.00 | 45 | 1014.9 |
| 20260507180418 | 70 | 232 | 3.0 | 9.0 | 0.00 | 0.00 | 0.00 | 44 | 1014.9 |
| 20260507180405 | 70 | 161 | 3.0 | 9.0 | 0.00 | 0.00 | 0.00 | 45 | 1014.9 |
| 20260507180353 | 70 | 252 | 4.0 | 9.0 | 0.00 | 0.00 | 0.00 | 47 | 1014.9 |
| 20260507180001 | 70 | 184 | 3.0 | 9.0 | 0.00 | 0.00 | 0.00 | 46 | 1014.9 |
| 20260507175906 | 70 | 148 | 4.0 | 13.0 | 0.00 | 0.00 | 0.00 | 47 | 1014.9 |
| 20260507175802 | 70 | 169 | 5.0 | 13.0 | 0.00 | 0.00 | 0.00 | 46 | 1014.9 |
| 20260507175702 | 70 | 142 | 6.0 | 13.0 | 0.00 | 0.00 | 0.00 | 46 | 1014.9 |
| 20260507175600 | 70 | 169 | 5.0 | 13.0 | 0.00 | 0.00 | 0.00 | 46 | 1015.0 |
| 20260507175504 | 70 | 151 | 2.0 | 13.0 | 0.00 | 0.00 | 0.00 | 46 | 1015.0 |
| 20260507175401 | 70 | 205 | 4.0 | 13.0 | 0.00 | 0.00 | 0.00 | 47 | 1015.0 |
| 20260507175306 | 70 | 250 | 6.0 | 13.0 | 0.00 | 0.00 | 0.00 | 46 | 1015.0 |
| 20260507175203 | 70 | 262 | 6.0 | 13.0 | 0.00 | 0.00 | 0.00 | 45 | 1015.0 |
| 20260507175102 | 71 | 263 | 4.0 | 13.0 | 0.00 | 0.00 | 0.00 | 46 | 1015.0 |
| 20260507174951 | 71 | 275 | 2.0 | 9.0 | 0.00 | 0.00 | 0.00 | 46 | 1015.0 |
| 20260507174849 | 71 | 246 | 3.0 | 7.0 | 0.00 | 0.00 | 0.00 | 46 | 1015.0 |
| 20260507174749 | 71 | 199 | 4.0 | 7.0 | 0.00 | 0.00 | 0.00 | 46 | 1015.0 |
| 20260507174648 | 71 | 150 | 4.0 | 7.0 | 0.00 | 0.00 | 0.00 | 46 | 1014.9 |
| 20260507174548 | 71 | 162 | 4.0 | 7.0 | 0.00 | 0.00 | 0.00 | 46 | 1014.9 |
| 20260507174450 | 71 | 194 | 2.0 | 7.0 | 0.00 | 0.00 | 0.00 | 46 | 1014.9 |
| 20260507174421 | 71 | 181 | 1.0 | 7.0 | 0.00 | 0.00 | 0.00 | 46 | 1015.0 |
| 20260507174407 | 71 | 116 | 2.0 | 7.0 | 0.00 | 0.00 | 0.00 | 47 | 1014.9 |
| 20260507174044 | 70 | 216 | 3.0 | 6.0 | 0.00 | 0.00 | 0.00 | 47 | 1015.0 |
| 20260507173948 | 71 | 282 | 3.0 | 6.0 | 0.00 | 0.00 | 0.00 | 47 | 1014.9 |
| 20260507173844 | 70 | 174 | 3.0 | 6.0 | 0.00 | 0.00 | 0.00 | 46 | 1015.0 |
| 20260507173813 | 70 | 208 | 2.0 | 6.0 | 0.00 | 0.00 | 0.00 | 46 | 1014.9 |
| 20260507173801 | 70 | 236 | 3.0 | 6.0 | 0.00 | 0.00 | 0.00 | 46 | 1015.0 |
| 20260507173442 | 70 | 259 | 2.0 | 8.0 | 0.00 | 0.00 | 0.00 | 46 | 1014.9 |
| 20260507173341 | 70 | 250 | 2.0 | 8.0 | 0.00 | 0.00 | 0.00 | 45 | 1014.9 |
| 20260507173252 | 70 | 225 | 2.0 | 8.0 | 0.00 | 0.00 | 0.00 | 45 | 1014.9 |
| 20260507173236 | 70 | 67 | 2.0 | 8.0 | 0.00 | 0.00 | 0.00 | 46 | 1014.9 |
| 20260507173224 | 70 | 269 | 3.0 | 8.0 | 0.00 | 0.00 | 0.00 | 45 | 1014.9 |
| 20260507173213 | 70 | 266 | 3.0 | 8.0 | 0.00 | 0.00 | 0.00 | 44 | 1015.0 |
| 20260507173117 | 70 | 298 | 4.0 | 8.0 | 0.00 | 0.00 | 0.00 | 44 | 1014.9 |
| 20260507172535 | 70 | 257 | 2.0 | 7.0 | 0.00 | 0.00 | 0.00 | 44 | 1015.0 |
| 20260507172516 | 70 | 11 | 1.0 | 7.0 | 0.00 | 0.00 | 0.00 | 43 | 1015.0 |
| 20260507172454 | 70 | 283 | 2.0 | 8.0 | 0.00 | 0.00 | 0.00 | 44 | 1014.9 |
| 20260507172133 | 69 | 265 | 2.0 | 8.0 | 0.00 | 0.00 | 0.00 | 43 | 1014.9 |
| 20260507172029 | 69 | 337 | 3.0 | 8.0 | 0.00 | 0.00 | 0.00 | 42 | 1014.9 |
| 20260507171934 | 70 | 47 | 2.0 | 8.0 | 0.00 | 0.00 | 0.00 | 41 | 1014.9 |
| 20260507171905 | 70 | 0 | 2.0 | 8.0 | 0.00 | 0.00 | 0.00 | 43 | 1015.0 |
| 20260507171851 | 70 | 348 | 2.0 | 8.0 | 0.00 | 0.00 | 0.00 | 43 | 1014.9 |
| 20260507171529 | 70 | 289 | 4.0 | 8.0 | 0.00 | 0.00 | 0.00 | 40 | 1015.0 |
| 20260507171429 | 70 | 265 | 5.0 | 8.0 | 0.00 | 0.00 | 0.00 | 42 | 1015.0 |
| 20260507171345 | 70 | 308 | 4.0 | 8.0 | 0.00 | 0.00 | 0.00 | 42 | 1015.0 |
| 20260507171327 | 70 | 248 | 2.0 | 8.0 | 0.00 | 0.00 | 0.00 | 42 | 1015.0 |
| 20260507171316 | 70 | 267 | 1.0 | 3.0 | 0.00 | 0.00 | 0.00 | 46 | 1015.0 |
| 20260507171304 | 70 | 280 | 1.0 | 3.0 | 0.00 | 0.00 | 0.00 | 44 | 1014.9 |
| 20260507171020 | 69 | 140 | 2.0 | 3.0 | 0.00 | 0.00 | 0.00 | 43 | 1014.9 |
| 20260507170748 | 69 | 277 | 2.0 | 3.0 | 0.00 | 0.00 | 0.00 | 45 | 1014.9 |
| 20260507170428 | 69 | 233 | 1.0 | 3.0 | 0.00 | 0.00 | 0.00 | 45 | 1015.0 |
| 20260507170330 | 69 | 140 | 1.0 | 6.0 | 0.00 | 0.00 | 0.00 | 44 | 1015.0 |
| 20260507170215 | 69 | 109 | 1.0 | 6.0 | 0.00 | 0.00 | 0.00 | 45 | 1015.0 |
| 20260507170110 | 69 | 51 | 1.0 | 6.0 | 0.00 | 0.00 | 0.00 | 45 | 1015.0 |
| 20260507170033 | 69 | 250 | 2.0 | 6.0 | 0.00 | 0.00 | 0.00 | 46 | 1015.0 |
| 20260507165910 | 69 | 347 | 2.0 | 6.0 | 0.00 | 0.00 | 0.00 | 45 | 1015.0 |
| 20260507165806 | 69 | 0 | 2.0 | 6.0 | 0.00 | 0.00 | 0.00 | 44 | 1015.1 |
| 20260507165705 | 69 | 338 | 2.0 | 6.0 | 0.00 | 0.00 | 0.00 | 45 | 1015.1 |
| 20260507165605 | 69 | 78 | 3.0 | 6.0 | 0.00 | 0.00 | 0.00 | 45 | 1015.0 |
| 20260507165501 | 69 | 296 | 3.0 | 6.0 | 0.00 | 0.00 | 0.00 | 45 | 1015.0 |
| 20260507165410 | 69 | 293 | 2.0 | 6.0 | 0.00 | 0.00 | 0.00 | 50 | 1015.0 |
| 20260507165306 | 69 | 311 | 2.0 | 5.0 | 0.00 | 0.00 | 0.00 | 50 | 1015.0 |
| 20260507165237 | 69 | 284 | 1.0 | 5.0 | 0.00 | 0.00 | 0.00 | 48 | 1015.0 |
| 20260507165222 | 69 | 232 | 2.0 | 5.0 | 0.00 | 0.00 | 0.00 | 51 | 1015.0 |
| 20260507164908 | 69 | 232 | 1.0 | 5.0 | 0.00 | 0.00 | 0.00 | 53 | 1015.1 |
| 20260507164803 | 69 | 275 | 2.0 | 5.0 | 0.00 | 0.00 | 0.00 | 52 | 1015.0 |
| 20260507164701 | 68 | 244 | 2.0 | 5.0 | 0.00 | 0.00 | 0.00 | 53 | 1015.0 |
| 20260507164605 | 68 | 225 | 1.0 | 5.0 | 0.00 | 0.00 | 0.00 | 53 | 1015.1 |
| 20260507164500 | 68 | 180 | 1.0 | 8.0 | 0.00 | 0.00 | 0.00 | 53 | 1015.0 |
| 20260507164406 | 68 | 239 | 1.0 | 8.0 | 0.00 | 0.00 | 0.00 | 53 | 1015.0 |
| 20260507164301 | 68 | 221 | 2.0 | 8.0 | 0.00 | 0.00 | 0.00 | 54 | 1015.0 |
| 20260507164216 | 68 | 270 | 3.0 | 8.0 | 0.00 | 0.00 | 0.00 | 53 | 1015.0 |
| 20260507164159 | 68 | 188 | 2.0 | 8.0 | 0.00 | 0.00 | 0.00 | 54 | 1015.0 |
| 20260507164147 | 68 | 196 | 2.0 | 8.0 | 0.00 | 0.00 | 0.00 | 54 | 1015.0 |
| 20260507164136 | 68 | 242 | 2.0 | 8.0 | 0.00 | 0.00 | 0.00 | 55 | 1015.0 |
| 20260507164110 | 67 | 244 | 3.0 | 8.0 | 0.00 | 0.00 | 0.00 | 55 | 1015.0 |
| 20260507164059 | 67 | 146 | 4.0 | 8.0 | 0.00 | 0.00 | 0.00 | 54 | 1015.0 |
| 20260507164047 | 67 | 187 | 5.0 | 9.0 | 0.00 | 0.00 | 0.00 | 56 | 1015.0 |
| 20260507164035 | 67 | 248 | 5.0 | 9.0 | 0.00 | 0.00 | 0.00 | 54 | 1015.0 |
| 20260507163751 | 67 | 150 | 3.0 | 10.0 | 0.00 | 0.00 | 0.00 | 54 | 1015.0 |
| 20260507163259 | 67 | 240 | 4.0 | 10.0 | 0.00 | 0.00 | 0.00 | 53 | 1015.0 |
| 20260507163018 | 67 | 216 | 5.0 | 10.0 | 0.00 | 0.00 | 0.00 | 53 | 1015.0 |
| 20260507162936 | 67 | 160 | 4.0 | 10.0 | 0.00 | 0.00 | 0.00 | 54 | 1015.1 |
| 20260507162706 | 67 | 246 | 4.0 | 10.0 | 0.00 | 0.00 | 0.00 | 54 | 1015.0 |
| 20260507162423 | 67 | 254 | 4.0 | 9.0 | 0.00 | 0.00 | 0.00 | 55 | 1015.0 |
| 20260507162102 | 67 | 252 | 3.0 | 9.0 | 0.00 | 0.00 | 0.00 | 56 | 1015.1 |
| 20260507162005 | 66 | 260 | 3.0 | 9.0 | 0.00 | 0.00 | 0.00 | 55 | 1015.1 |
| 20260507161933 | 66 | 244 | 4.0 | 9.0 | 0.00 | 0.00 | 0.00 | 56 | 1015.1 |
| 20260507161908 | 66 | 246 | 5.0 | 9.0 | 0.00 | 0.00 | 0.00 | 56 | 1015.0 |
| 20260507161857 | 66 | 331 | 4.0 | 9.0 | 0.00 | 0.00 | 0.00 | 55 | 1015.0 |
| 20260507161625 | 66 | 269 | 4.0 | 9.0 | 0.00 | 0.00 | 0.00 | 53 | 1015.0 |
| 20260507161301 | 66 | 285 | 4.0 | 9.0 | 0.00 | 0.00 | 0.00 | 52 | 1015.0 |
| 20260507161238 | 66 | 267 | 4.0 | 9.0 | 0.00 | 0.00 | 0.00 | 50 | 1015.0 |
| 20260507161223 | 66 | 259 | 3.0 | 9.0 | 0.00 | 0.00 | 0.00 | 54 | 1015.0 |
| 20260507160901 | 66 | 186 | 2.0 | 9.0 | 0.00 | 0.00 | 0.00 | 53 | 1014.9 |
| 20260507160801 | 66 | 250 | 2.0 | 9.0 | 0.00 | 0.00 | 0.00 | 53 | 1015.0 |
| 20260507160701 | 66 | 248 | 4.0 | 9.0 | 0.00 | 0.00 | 0.00 | 54 | 1015.0 |
| 20260507160636 | 66 | 121 | 4.0 | 9.0 | 0.00 | 0.00 | 0.00 | 54 | 1015.0 |
| 20260507160625 | 66 | 286 | 4.0 | 9.0 | 0.00 | 0.00 | 0.00 | 53 | 1015.0 |
| 20260507160301 | 66 | 229 | 3.0 | 7.0 | 0.00 | 0.00 | 0.00 | 55 | 1015.0 |
| 20260507160203 | 66 | 257 | 2.0 | 7.0 | 0.00 | 0.00 | 0.00 | 55 | 1015.0 |
| 20260507160001 | 66 | 258 | 2.0 | 6.0 | 0.00 | 0.00 | 0.00 | 56 | 1015.0 |
| 20260507155927 | 66 | 248 | 2.0 | 6.0 | 0.00 | 0.00 | 0.00 | 57 | 1015.0 |
| 20260507155900 | 65 | 310 | 2.0 | 6.0 | 0.00 | 0.00 | 0.00 | 56 | 1015.0 |
| 20260507155849 | 65 | 221 | 3.0 | 6.0 | 0.00 | 0.00 | 0.00 | 57 | 1015.0 |
| 20260507155544 | 65 | 262 | 2.0 | 6.0 | 0.00 | 0.00 | 0.00 | 58 | 1015.0 |
| 20260507155533 | 65 | 135 | 2.0 | 7.0 | 0.00 | 0.00 | 0.00 | 58 | 1015.1 |
| 20260507155201 | 65 | 167 | 2.0 | 8.0 | 0.00 | 0.00 | 0.00 | 60 | 1015.0 |
| 20260507155100 | 65 | 167 | 2.0 | 8.0 | 0.00 | 0.00 | 0.00 | 60 | 1015.0 |
| 20260507155039 | 65 | 247 | 2.0 | 10.0 | 0.00 | 0.00 | 0.00 | 58 | 1015.0 |
| 20260507155028 | 65 | 263 | 3.0 | 11.0 | 0.00 | 0.00 | 0.00 | 59 | 1015.0 |
| 20260507154652 | 64 | 287 | 2.0 | 11.0 | 0.00 | 0.00 | 0.00 | 62 | 1014.9 |
| 20260507154552 | 64 | 257 | 4.0 | 11.0 | 0.00 | 0.00 | 0.00 | 62 | 1014.9 |
| 20260507154452 | 64 | 223 | 3.0 | 11.0 | 0.00 | 0.00 | 0.00 | 60 | 1014.9 |
| 20260507154354 | 64 | 165 | 2.0 | 11.0 | 0.00 | 0.00 | 0.00 | 61 | 1014.9 |
| 20260507154323 | 64 | 245 | 3.0 | 11.0 | 0.00 | 0.00 | 0.00 | 62 | 1014.9 |
| 20260507154309 | 64 | 164 | 6.0 | 11.0 | 0.00 | 0.00 | 0.00 | 62 | 1014.9 |
| 20260507153947 | 64 | 171 | 5.0 | 11.0 | 0.00 | 0.00 | 0.00 | 59 | 1015.0 |
| 20260507153911 | 64 | 178 | 3.0 | 9.0 | 0.00 | 0.00 | 0.00 | 61 | 1015.0 |
| 20260507153843 | 64 | 207 | 3.0 | 8.0 | 0.00 | 0.00 | 0.00 | 61 | 1014.9 |
| 20260507153832 | 64 | 234 | 2.0 | 8.0 | 0.00 | 0.00 | 0.00 | 62 | 1015.0 |
| 20260507153818 | 64 | 209 | 3.0 | 8.0 | 0.00 | 0.00 | 0.00 | 61 | 1014.9 |
| 20260507153808 | 64 | 189 | 3.0 | 8.0 | 0.00 | 0.00 | 0.00 | 60 | 1015.0 |
| 20260507153526 | 64 | 159 | 2.0 | 7.0 | 0.00 | 0.00 | 0.00 | 62 | 1015.0 |
| 20260507153510 | 64 | 212 | 2.0 | 7.0 | 0.00 | 0.00 | 0.00 | 61 | 1015.0 |
| 20260507153241 | 64 | 209 | 2.0 | 5.0 | 0.00 | 0.00 | 0.00 | 63 | 1015.0 |
| 20260507153231 | 64 | 185 | 3.0 | 5.0 | 0.00 | 0.00 | 0.00 | 63 | 1015.0 |
| 20260507152946 | 63 | 89 | 2.0 | 6.0 | 0.00 | 0.00 | 0.00 | 63 | 1015.0 |
| 20260507152337 | 63 | 196 | 1.0 | 6.0 | 0.00 | 0.00 | 0.00 | 63 | 1015.0 |
| 20260507152237 | 63 | 101 | 2.0 | 9.0 | 0.00 | 0.00 | 0.00 | 63 | 1015.0 |
| 20260507152135 | 63 | 196 | 2.0 | 9.0 | 0.00 | 0.00 | 0.00 | 63 | 1015.0 |
| 20260507152035 | 63 | 178 | 2.0 | 9.0 | 0.00 | 0.00 | 0.00 | 63 | 1015.0 |
| 20260507152016 | 63 | 182 | 3.0 | 9.0 | 0.00 | 0.00 | 0.00 | 63 | 1015.0 |
| 20260507152006 | 63 | 181 | 2.0 | 9.0 | 0.00 | 0.00 | 0.00 | 62 | 1015.0 |
| 20260507151632 | 63 | 274 | 2.0 | 9.0 | 0.00 | 0.00 | 0.00 | 64 | 1014.9 |
| 20260507151532 | 63 | 223 | 2.0 | 9.0 | 0.00 | 0.00 | 0.00 | 63 | 1014.9 |
| 20260507151431 | 63 | 164 | 3.0 | 9.0 | 0.00 | 0.00 | 0.00 | 63 | 1014.9 |
| 20260507151334 | 63 | 228 | 2.0 | 9.0 | 0.00 | 0.00 | 0.00 | 63 | 1014.9 |
| 20260507151233 | 63 | 260 | 1.0 | 7.0 | 0.00 | 0.00 | 0.00 | 64 | 1014.9 |
| 20260507151130 | 62 | 221 | 2.0 | 7.0 | 0.00 | 0.00 | 0.00 | 64 | 1014.9 |
| 20260507151106 | 62 | 181 | 3.0 | 7.0 | 0.00 | 0.00 | 0.00 | 64 | 1014.9 |
| 20260507151054 | 62 | 162 | 3.0 | 7.0 | 0.00 | 0.00 | 0.00 | 64 | 1014.9 |
| 20260507150729 | 62 | 211 | 3.0 | 6.0 | 0.00 | 0.00 | 0.00 | 65 | 1014.8 |
| 20260507150632 | 62 | 188 | 3.0 | 6.0 | 0.00 | 0.00 | 0.00 | 64 | 1014.8 |
| 20260507150530 | 62 | 146 | 2.0 | 6.0 | 0.00 | 0.00 | 0.00 | 65 | 1014.8 |
| 20260507150434 | 62 | 152 | 2.0 | 6.0 | 0.00 | 0.00 | 0.00 | 65 | 1014.7 |
| 20260507150418 | 62 | 258 | 3.0 | 6.0 | 0.00 | 0.00 | 0.00 | 64 | 1014.7 |
| 20260507150353 | 62 | 210 | 3.0 | 6.0 | 0.00 | 0.00 | 0.00 | 63 | 1014.7 |
| 20260507150030 | 62 | 209 | 2.0 | 6.0 | 0.00 | 0.00 | 0.00 | 64 | 1014.7 |
| 20260507145929 | 62 | 229 | 2.0 | 6.0 | 0.00 | 0.00 | 0.00 | 64 | 1014.7 |
| 20260507145854 | 62 | 211 | 1.0 | 6.0 | 0.00 | 0.00 | 0.00 | 65 | 1014.8 |
| 20260507145828 | 62 | 187 | 2.0 | 6.0 | 0.00 | 0.00 | 0.00 | 64 | 1014.8 |
| 20260507145817 | 62 | 169 | 3.0 | 6.0 | 0.00 | 0.00 | 0.00 | 64 | 1014.8 |
| 20260507145542 | 62 | 274 | 3.0 | 6.0 | 0.00 | 0.00 | 0.00 | 63 | 1014.8 |
| 20260507145530 | 62 | 155 | 2.0 | 6.0 | 0.00 | 0.00 | 0.00 | 63 | 1014.8 |
| 20260507145127 | 62 | 213 | 2.0 | 6.0 | 0.00 | 0.00 | 0.00 | 64 | 1014.8 |
| 20260507145027 | 62 | 225 | 2.0 | 6.0 | 0.00 | 0.00 | 0.00 | 65 | 1014.8 |
| 20260507144927 | 61 | 220 | 2.0 | 6.0 | 0.00 | 0.00 | 0.00 | 65 | 1014.8 |
| 20260507144826 | 61 | 253 | 2.0 | 6.0 | 0.00 | 0.00 | 0.00 | 65 | 1014.8 |
| 20260507144725 | 61 | 217 | 2.0 | 6.0 | 0.00 | 0.00 | 0.00 | 64 | 1014.8 |
| 20260507144624 | 61 | 259 | 2.0 | 6.0 | 0.00 | 0.00 | 0.00 | 65 | 1014.8 |
| 20260507144524 | 61 | 170 | 2.0 | 6.0 | 0.00 | 0.00 | 0.00 | 65 | 1014.8 |
| 20260507144423 | 61 | 257 | 2.0 | 6.0 | 0.00 | 0.00 | 0.00 | 65 | 1014.8 |
| 20260507144323 | 61 | 195 | 2.0 | 6.0 | 0.00 | 0.00 | 0.00 | 65 | 1014.9 |
| 20260507144222 | 61 | 182 | 2.0 | 6.0 | 0.00 | 0.00 | 0.00 | 65 | 1014.8 |
| 20260507144122 | 61 | 218 | 2.0 | 6.0 | 0.00 | 0.00 | 0.00 | 65 | 1014.7 |
| 20260507144022 | 60 | 209 | 3.0 | 6.0 | 0.00 | 0.00 | 0.00 | 66 | 1014.8 |
| 20260507143921 | 60 | 173 | 2.0 | 6.0 | 0.00 | 0.00 | 0.00 | 65 | 1014.7 |
| 20260507143823 | 60 | 164 | 2.0 | 6.0 | 0.00 | 0.00 | 0.00 | 66 | 1014.7 |
| 20260507143719 | 60 | 261 | 2.0 | 6.0 | 0.00 | 0.00 | 0.00 | 67 | 1014.8 |
| 20260507143619 | 60 | 209 | 2.0 | 6.0 | 0.00 | 0.00 | 0.00 | 67 | 1014.8 |
| 20260507143518 | 60 | 236 | 2.0 | 6.0 | 0.00 | 0.00 | 0.00 | 67 | 1014.8 |
| 20260507143418 | 60 | 184 | 2.0 | 6.0 | 0.00 | 0.00 | 0.00 | 67 | 1014.8 |
| 20260507143321 | 60 | 236 | 2.0 | 6.0 | 0.00 | 0.00 | 0.00 | 67 | 1014.8 |
| 20260507143213 | 60 | 178 | 2.0 | 6.0 | 0.00 | 0.00 | 0.00 | 67 | 1014.8 |
| 20260507143110 | 60 | 217 | 2.0 | 6.0 | 0.00 | 0.00 | 0.00 | 67 | 1014.8 |
| 20260507143011 | 60 | 228 | 1.0 | 6.0 | 0.00 | 0.00 | 0.00 | 68 | 1014.8 |
| 20260507142909 | 60 | 192 | 1.0 | 6.0 | 0.00 | 0.00 | 0.00 | 69 | 1014.7 |
| 20260507142817 | 60 | 190 | 2.0 | 6.0 | 0.00 | 0.00 | 0.00 | 68 | 1014.8 |
| 20260507142707 | 59 | 182 | 2.0 | 6.0 | 0.00 | 0.00 | 0.00 | 69 | 1014.7 |
| 20260507142606 | 59 | 246 | 2.0 | 6.0 | 0.00 | 0.00 | 0.00 | 69 | 1014.7 |
| 20260507142505 | 59 | 189 | 3.0 | 9.0 | 0.00 | 0.00 | 0.00 | 68 | 1014.7 |
| 20260507142408 | 59 | 166 | 3.0 | 9.0 | 0.00 | 0.00 | 0.00 | 68 | 1014.7 |
| 20260507142313 | 59 | 190 | 2.0 | 9.0 | 0.00 | 0.00 | 0.00 | 69 | 1014.7 |
| 20260507142201 | 59 | 188 | 2.0 | 9.0 | 0.00 | 0.00 | 0.00 | 69 | 1014.7 |
| 20260507142101 | 59 | 226 | 2.0 | 9.0 | 0.00 | 0.00 | 0.00 | 69 | 1014.7 |
| 20260507142042 | 59 | 205 | 2.0 | 9.0 | 0.00 | 0.00 | 0.00 | 69 | 1014.7 |
| 20260507142031 | 59 | 180 | 2.0 | 9.0 | 0.00 | 0.00 | 0.00 | 69 | 1014.7 |
| 20260507141732 | 59 | 189 | 4.0 | 9.0 | 0.00 | 0.00 | 0.00 | 69 | 1014.7 |
| 20260507141724 | 59 | 209 | 2.0 | 9.0 | 0.00 | 0.00 | 0.00 | 69 | 1014.7 |
| 20260507141443 | 59 | 237 | 2.0 | 5.0 | 0.00 | 0.00 | 0.00 | 70 | 1014.7 |
| 20260507141420 | 59 | 214 | 2.0 | 6.0 | 0.00 | 0.00 | 0.00 | 70 | 1014.7 |
| 20260507141409 | 59 | 173 | 2.0 | 6.0 | 0.00 | 0.00 | 0.00 | 70 | 1014.6 |
| 20260507141354 | 59 | 216 | 1.0 | 6.0 | 0.00 | 0.00 | 0.00 | 70 | 1014.6 |
| 20260507141343 | 59 | 205 | 1.0 | 6.0 | 0.00 | 0.00 | 0.00 | 70 | 1014.6 |
| 20260507141102 | 58 | 164 | 2.0 | 6.0 | 0.00 | 0.00 | 0.00 | 71 | 1014.6 |
| 20260507141049 | 58 | 289 | 2.0 | 6.0 | 0.00 | 0.00 | 0.00 | 71 | 1014.6 |
| 20260507140559 | 58 | 277 | 2.0 | 6.0 | 0.00 | 0.00 | 0.00 | 71 | 1014.7 |
| 20260507140310 | 58 | 263 | 2.0 | 4.0 | 0.00 | 0.00 | 0.00 | 72 | 1014.6 |
| 20260507135949 | 58 | 258 | 2.0 | 4.0 | 0.00 | 0.00 | 0.00 | 72 | 1014.6 |
| 20260507135848 | 58 | 259 | 1.0 | 4.0 | 0.00 | 0.00 | 0.00 | 72 | 1014.5 |
| 20260507135748 | 58 | 202 | 1.0 | 4.0 | 0.00 | 0.00 | 0.00 | 72 | 1014.5 |
| 20260507135647 | 58 | 263 | 1.0 | 4.0 | 0.00 | 0.00 | 0.00 | 72 | 1014.5 |
| 20260507135618 | 58 | 202 | 2.0 | 4.0 | 0.00 | 0.00 | 0.00 | 72 | 1014.5 |
| 20260507135605 | 58 | 236 | 2.0 | 4.0 | 0.00 | 0.00 | 0.00 | 73 | 1014.5 |
| 20260507135245 | 58 | 267 | 1.0 | 4.0 | 0.00 | 0.00 | 0.00 | 73 | 1014.5 |
| 20260507135143 | 58 | 217 | 1.0 | 4.0 | 0.00 | 0.00 | 0.00 | 73 | 1014.6 |
| 20260507135046 | 58 | 236 | 1.0 | 4.0 | 0.00 | 0.00 | 0.00 | 73 | 1014.6 |
| 20260507135033 | 58 | 259 | 1.0 | 4.0 | 0.00 | 0.00 | 0.00 | 73 | 1014.5 |
| 20260507135019 | 58 | 212 | 1.0 | 4.0 | 0.00 | 0.00 | 0.00 | 73 | 1014.5 |
| 20260507134957 | 58 | 268 | 2.0 | 4.0 | 0.00 | 0.00 | 0.00 | 73 | 1014.5 |
| 20260507134946 | 58 | 216 | 2.0 | 4.0 | 0.00 | 0.00 | 0.00 | 73 | 1014.4 |
| 20260507134935 | 57 | 196 | 2.0 | 4.0 | 0.00 | 0.00 | 0.00 | 73 | 1014.4 |
| 20260507134923 | 57 | 165 | 2.0 | 4.0 | 0.00 | 0.00 | 0.00 | 73 | 1014.4 |
| 20260507134912 | 57 | 191 | 2.0 | 6.0 | 0.00 | 0.00 | 0.00 | 73 | 1014.3 |
| 20260507134848 | 57 | 223 | 2.0 | 6.0 | 0.00 | 0.00 | 0.00 | 73 | 1014.3 |
| 20260507134613 | 57 | 250 | 1.0 | 6.0 | 0.00 | 0.00 | 0.00 | 74 | 1014.3 |
| 20260507134602 | 57 | 229 | 1.0 | 6.0 | 0.00 | 0.00 | 0.00 | 74 | 1014.3 |
| 20260507134101 | 57 | 122 | 2.0 | 7.0 | 0.00 | 0.00 | 0.00 | 74 | 1014.3 |
| 20260507133610 | 57 | 243 | 1.0 | 7.0 | 0.00 | 0.00 | 0.00 | 74 | 1014.2 |
| 20260507133327 | 57 | 155 | 2.0 | 7.0 | 0.00 | 0.00 | 0.00 | 74 | 1014.2 |
| 20260507133313 | 57 | 287 | 2.0 | 7.0 | 0.00 | 0.00 | 0.00 | 75 | 1014.1 |
| 20260507133301 | 57 | 235 | 2.0 | 7.0 | 0.00 | 0.00 | 0.00 | 74 | 1014.1 |
| 20260507133018 | 57 | 263 | 1.0 | 5.0 | 0.00 | 0.00 | 0.00 | 75 | 1014.1 |
| 20260507132747 | 57 | 234 | 2.0 | 6.0 | 0.00 | 0.00 | 0.00 | 75 | 1014.1 |
| 20260507132733 | 57 | 181 | 2.0 | 6.0 | 0.00 | 0.00 | 0.00 | 75 | 1014.0 |
| 20260507132452 | 57 | 229 | 2.0 | 6.0 | 0.00 | 0.00 | 0.00 | 75 | 1014.0 |
| 20260507132439 | 57 | 242 | 2.0 | 6.0 | 0.00 | 0.00 | 0.00 | 75 | 1014.0 |
| 20260507131828 | 57 | 242 | 2.0 | 6.0 | 0.00 | 0.00 | 0.00 | 75 | 1014.0 |
| 20260507131729 | 57 | 196 | 2.0 | 6.0 | 0.00 | 0.00 | 0.00 | 75 | 1014.0 |
| 20260507131629 | 57 | 157 | 2.0 | 6.0 | 0.00 | 0.00 | 0.00 | 75 | 1014.0 |
| 20260507131529 | 57 | 178 | 2.0 | 5.0 | 0.00 | 0.00 | 0.00 | 75 | 1014.0 |
| 20260507131428 | 57 | 154 | 2.0 | 5.0 | 0.00 | 0.00 | 0.00 | 75 | 1014.0 |
| 20260507131329 | 57 | 202 | 3.0 | 5.0 | 0.00 | 0.00 | 0.00 | 76 | 1014.0 |
| 20260507131229 | 57 | 203 | 3.0 | 5.0 | 0.00 | 0.00 | 0.00 | 75 | 1013.9 |
| 20260507131129 | 57 | 196 | 3.0 | 5.0 | 0.00 | 0.00 | 0.00 | 76 | 1014.0 |
| 20260507131028 | 57 | 174 | 2.0 | 7.0 | 0.00 | 0.00 | 0.00 | 75 | 1014.0 |
| 20260507130928 | 57 | 215 | 2.0 | 7.0 | 0.00 | 0.00 | 0.00 | 76 | 1013.9 |
| 20260507130828 | 57 | 241 | 2.0 | 7.0 | 0.00 | 0.00 | 0.00 | 76 | 1013.9 |
| 20260507130730 | 57 | 196 | 2.0 | 7.0 | 0.00 | 0.00 | 0.00 | 76 | 1013.9 |
| 20260507130629 | 57 | 177 | 2.0 | 7.0 | 0.00 | 0.00 | 0.00 | 76 | 1013.9 |
| 20260507130531 | 57 | 167 | 2.0 | 7.0 | 0.00 | 0.00 | 0.00 | 76 | 1013.9 |
| 20260507130429 | 57 | 139 | 1.0 | 7.0 | 0.00 | 0.00 | 0.00 | 76 | 1013.9 |
| 20260507130329 | 57 | 248 | 1.0 | 7.0 | 0.00 | 0.00 | 0.00 | 76 | 1013.8 |
| 20260507130302 | 57 | 243 | 2.0 | 7.0 | 0.00 | 0.00 | 0.00 | 76 | 1013.9 |
| 20260507130251 | 57 | 236 | 3.0 | 7.0 | 0.00 | 0.00 | 0.00 | 76 | 1013.8 |
| 20260507125932 | 57 | 156 | 2.0 | 6.0 | 0.00 | 0.00 | 0.00 | 75 | 1013.9 |
| 20260507125832 | 57 | 206 | 2.0 | 6.0 | 0.00 | 0.00 | 0.00 | 76 | 1013.9 |
| 20260507125804 | 57 | 212 | 2.0 | 6.0 | 0.00 | 0.00 | 0.00 | 76 | 1013.9 |
| 20260507125750 | 57 | 221 | 2.0 | 6.0 | 0.00 | 0.00 | 0.00 | 75 | 1014.0 |
| 20260507125512 | 57 | 175 | 2.0 | 6.0 | 0.00 | 0.00 | 0.00 | 76 | 1014.0 |
| 20260507125501 | 57 | 196 | 2.0 | 6.0 | 0.00 | 0.00 | 0.00 | 76 | 1014.0 |
| 20260507125146 | 57 | 196 | 3.0 | 6.0 | 0.00 | 0.00 | 0.00 | 75 | 1014.0 |
| 20260507125130 | 57 | 146 | 2.0 | 6.0 | 0.00 | 0.00 | 0.00 | 75 | 1014.0 |
| 20260507125118 | 57 | 269 | 2.0 | 5.0 | 0.00 | 0.00 | 0.00 | 75 | 1014.0 |
| 20260507124728 | 57 | 204 | 1.0 | 5.0 | 0.00 | 0.00 | 0.00 | 75 | 1013.9 |
| 20260507124630 | 57 | 160 | 1.0 | 5.0 | 0.00 | 0.00 | 0.00 | 75 | 1013.9 |
| 20260507124529 | 57 | 220 | 2.0 | 5.0 | 0.00 | 0.00 | 0.00 | 75 | 1013.9 |
| 20260507124427 | 57 | 204 | 1.0 | 4.0 | 0.00 | 0.00 | 0.00 | 75 | 1013.9 |
| 20260507124326 | 57 | 180 | 2.0 | 4.0 | 0.00 | 0.00 | 0.00 | 75 | 1014.0 |
| 20260507124226 | 57 | 183 | 2.0 | 4.0 | 0.00 | 0.00 | 0.00 | 75 | 1013.9 |
| 20260507124128 | 57 | 280 | 2.0 | 4.0 | 0.00 | 0.00 | 0.00 | 75 | 1013.9 |
| 20260507124026 | 57 | 203 | 1.0 | 4.0 | 0.00 | 0.00 | 0.00 | 75 | 1013.9 |
| 20260507123927 | 57 | 201 | 1.0 | 4.0 | 0.00 | 0.00 | 0.00 | 75 | 1013.9 |
| 20260507123824 | 57 | 201 | 2.0 | 4.0 | 0.00 | 0.00 | 0.00 | 75 | 1013.8 |
| 20260507123722 | 57 | 217 | 1.0 | 4.0 | 0.00 | 0.00 | 0.00 | 75 | 1013.9 |
| 20260507123622 | 57 | 163 | 1.0 | 4.0 | 0.00 | 0.00 | 0.00 | 75 | 1013.9 |
| 20260507123522 | 57 | 279 | 1.0 | 4.0 | 0.00 | 0.00 | 0.00 | 75 | 1013.9 |
| 20260507123418 | 57 | 305 | 1.0 | 4.0 | 0.00 | 0.00 | 0.00 | 75 | 1013.8 |
| 20260507123316 | 57 | 265 | 1.0 | 4.0 | 0.00 | 0.00 | 0.00 | 75 | 1013.9 |
| 20260507123213 | 57 | 268 | 2.0 | 4.0 | 0.00 | 0.00 | 0.00 | 75 | 1013.8 |
| 20260507123115 | 57 | 267 | 1.0 | 4.0 | 0.00 | 0.00 | 0.00 | 75 | 1013.8 |
| 20260507123014 | 57 | 146 | 1.0 | 5.0 | 0.00 | 0.00 | 0.00 | 75 | 1013.8 |
| 20260507122912 | 57 | 196 | 2.0 | 5.0 | 0.00 | 0.00 | 0.00 | 75 | 1013.7 |
| 20260507122811 | 57 | 197 | 2.0 | 5.0 | 0.00 | 0.00 | 0.00 | 75 | 1013.7 |
| 20260507122739 | 57 | 192 | 2.0 | 6.0 | 0.00 | 0.00 | 0.00 | 75 | 1013.7 |
| 20260507122728 | 57 | 199 | 2.0 | 7.0 | 0.00 | 0.00 | 0.00 | 75 | 1013.6 |
| 20260507122408 | 57 | 200 | 2.0 | 8.0 | 0.00 | 0.00 | 0.00 | 75 | 1013.6 |
| 20260507122308 | 57 | 240 | 2.0 | 8.0 | 0.00 | 0.00 | 0.00 | 75 | 1013.6 |
| 20260507122207 | 57 | 229 | 2.0 | 9.0 | 0.00 | 0.00 | 0.00 | 75 | 1013.6 |
| 20260507122106 | 57 | 124 | 2.0 | 9.0 | 0.00 | 0.00 | 0.00 | 75 | 1013.6 |
| 20260507122005 | 57 | 226 | 2.0 | 9.0 | 0.00 | 0.00 | 0.00 | 75 | 1013.6 |
| 20260507121906 | 57 | 179 | 3.0 | 9.0 | 0.00 | 0.00 | 0.00 | 75 | 1013.6 |
| 20260507121850 | 57 | 188 | 3.0 | 10.0 | 0.00 | 0.00 | 0.00 | 74 | 1013.6 |
| 20260507121827 | 57 | 257 | 4.0 | 10.0 | 0.00 | 0.00 | 0.00 | 74 | 1013.6 |
| 20260507121504 | 57 | 219 | 3.0 | 10.0 | 0.00 | 0.00 | 0.00 | 74 | 1013.5 |
| 20260507121405 | 57 | 214 | 4.0 | 10.0 | 0.00 | 0.00 | 0.00 | 74 | 1013.5 |
| 20260507121303 | 57 | 192 | 4.0 | 10.0 | 0.00 | 0.00 | 0.00 | 74 | 1013.6 |
| 20260507121201 | 57 | 222 | 4.0 | 10.0 | 0.00 | 0.00 | 0.00 | 74 | 1013.5 |
| 20260507121103 | 57 | 243 | 4.0 | 10.0 | 0.00 | 0.00 | 0.00 | 74 | 1013.6 |
| 20260507121001 | 57 | 165 | 5.0 | 10.0 | 0.00 | 0.00 | 0.00 | 74 | 1013.5 |
| 20260507120902 | 57 | 218 | 3.0 | 10.0 | 0.00 | 0.00 | 0.00 | 74 | 1013.6 |
| 20260507120805 | 57 | 229 | 3.0 | 8.0 | 0.00 | 0.00 | 0.00 | 74 | 1013.6 |
| 20260507120730 | 57 | 206 | 4.0 | 8.0 | 0.00 | 0.00 | 0.00 | 74 | 1013.6 |
| 20260507120718 | 57 | 205 | 3.0 | 8.0 | 0.00 | 0.00 | 0.00 | 74 | 1013.6 |
| 20260507120707 | 57 | 235 | 2.0 | 8.0 | 0.00 | 0.00 | 0.00 | 74 | 1013.5 |
| 20260507120434 | 57 | 198 | 3.0 | 8.0 | 0.00 | 0.00 | 0.00 | 73 | 1013.6 |
| 20260507120004 | 57 | 209 | 3.0 | 8.0 | 0.00 | 0.00 | 0.00 | 73 | 1013.6 |
| 20260507115902 | 57 | 236 | 2.0 | 8.0 | 0.00 | 0.00 | 0.00 | 73 | 1013.7 |
| 20260507115803 | 57 | 180 | 2.0 | 8.0 | 0.00 | 0.00 | 0.00 | 73 | 1013.6 |
| 20260507115702 | 58 | 161 | 2.0 | 7.0 | 0.00 | 0.00 | 0.00 | 72 | 1013.7 |
| 20260507115601 | 58 | 262 | 3.0 | 8.0 | 0.00 | 0.00 | 0.00 | 72 | 1013.7 |
| 20260507115502 | 58 | 175 | 3.0 | 8.0 | 0.00 | 0.00 | 0.00 | 72 | 1013.7 |
| 20260507115406 | 58 | 230 | 2.0 | 8.0 | 0.00 | 0.00 | 0.00 | 72 | 1013.7 |
| 20260507115351 | 58 | 180 | 3.0 | 8.0 | 0.00 | 0.00 | 0.00 | 72 | 1013.7 |
| 20260507115328 | 58 | 252 | 3.0 | 8.0 | 0.00 | 0.00 | 0.00 | 72 | 1013.7 |
| 20260507115315 | 58 | 238 | 2.0 | 8.0 | 0.00 | 0.00 | 0.00 | 72 | 1013.7 |
| 20260507115300 | 58 | 182 | 3.0 | 8.0 | 0.00 | 0.00 | 0.00 | 72 | 1013.6 |
| 20260507115250 | 58 | 188 | 4.0 | 8.0 | 0.00 | 0.00 | 0.00 | 72 | 1013.7 |
| 20260507114716 | 58 | 218 | 2.0 | 7.0 | 0.00 | 0.00 | 0.00 | 71 | 1013.6 |
| 20260507114705 | 58 | 196 | 4.0 | 7.0 | 0.00 | 0.00 | 0.00 | 71 | 1013.6 |
| 20260507114434 | 58 | 147 | 2.0 | 7.0 | 0.00 | 0.00 | 0.00 | 71 | 1013.6 |
| 20260507114103 | 58 | 217 | 2.0 | 8.0 | 0.00 | 0.00 | 0.00 | 71 | 1013.7 |
| 20260507114003 | 58 | 144 | 2.0 | 8.0 | 0.00 | 0.00 | 0.00 | 71 | 1013.6 |
| 20260507113948 | 58 | 183 | 2.0 | 8.0 | 0.00 | 0.00 | 0.00 | 71 | 1013.6 |
| 20260507113936 | 58 | 205 | 2.0 | 8.0 | 0.00 | 0.00 | 0.00 | 71 | 1013.6 |
| 20260507113601 | 58 | 174 | 3.0 | 8.0 | 0.00 | 0.00 | 0.00 | 71 | 1013.6 |
| 20260507113505 | 58 | 155 | 3.0 | 8.0 | 0.00 | 0.00 | 0.00 | 71 | 1013.6 |
| 20260507113401 | 58 | 209 | 3.0 | 9.0 | 0.00 | 0.00 | 0.00 | 71 | 1013.6 |
| 20260507113304 | 58 | 137 | 3.0 | 9.0 | 0.00 | 0.00 | 0.00 | 71 | 1013.6 |
| 20260507113201 | 58 | 215 | 3.0 | 9.0 | 0.00 | 0.00 | 0.00 | 71 | 1013.6 |
| 20260507113104 | 58 | 178 | 3.0 | 9.0 | 0.00 | 0.00 | 0.00 | 71 | 1013.6 |
| 20260507113001 | 58 | 254 | 3.0 | 9.0 | 0.00 | 0.00 | 0.00 | 71 | 1013.6 |
| 20260507112905 | 58 | 228 | 2.0 | 9.0 | 0.00 | 0.00 | 0.00 | 71 | 1013.6 |
| 20260507112801 | 58 | 221 | 2.0 | 9.0 | 0.00 | 0.00 | 0.00 | 71 | 1013.7 |
| 20260507112703 | 58 | 258 | 4.0 | 9.0 | 0.00 | 0.00 | 0.00 | 71 | 1013.6 |
| 20260507112601 | 58 | 199 | 3.0 | 9.0 | 0.00 | 0.00 | 0.00 | 70 | 1013.7 |
| 20260507112503 | 58 | 161 | 2.0 | 9.0 | 0.00 | 0.00 | 0.00 | 70 | 1013.7 |
| 20260507112401 | 58 | 177 | 3.0 | 8.0 | 0.00 | 0.00 | 0.00 | 70 | 1013.7 |
| 20260507112310 | 58 | 191 | 3.0 | 8.0 | 0.00 | 0.00 | 0.00 | 70 | 1013.7 |
| 20260507112242 | 58 | 225 | 3.0 | 8.0 | 0.00 | 0.00 | 0.00 | 70 | 1013.7 |
| 20260507112231 | 58 | 202 | 2.0 | 8.0 | 0.00 | 0.00 | 0.00 | 70 | 1013.6 |
| 20260507112218 | 58 | 157 | 2.0 | 8.0 | 0.00 | 0.00 | 0.00 | 70 | 1013.7 |
| 20260507112206 | 58 | 177 | 2.0 | 8.0 | 0.00 | 0.00 | 0.00 | 70 | 1013.7 |
| 20260507111936 | 58 | 163 | 2.0 | 8.0 | 0.00 | 0.00 | 0.00 | 70 | 1013.6 |
| 20260507111841 | 58 | 279 | 1.0 | 8.0 | 0.00 | 0.00 | 0.00 | 69 | 1013.6 |
| 20260507111303 | 58 | 254 | 2.0 | 9.0 | 0.00 | 0.00 | 0.00 | 69 | 1013.6 |
| 20260507111216 | 58 | 254 | 3.0 | 9.0 | 0.00 | 0.00 | 0.00 | 69 | 1013.6 |
| 20260507111129 | 58 | 185 | 3.0 | 9.0 | 0.00 | 0.00 | 0.00 | 69 | 1013.6 |
| 20260507111115 | 58 | 247 | 3.0 | 9.0 | 0.00 | 0.00 | 0.00 | 69 | 1013.7 |
| 20260507111104 | 58 | 180 | 2.0 | 9.0 | 0.00 | 0.00 | 0.00 | 69 | 1013.6 |
| 20260507110833 | 58 | 225 | 3.0 | 9.0 | 0.00 | 0.00 | 0.00 | 69 | 1013.7 |
| 20260507110502 | 58 | 146 | 3.0 | 9.0 | 0.00 | 0.00 | 0.00 | 69 | 1013.7 |
| 20260507110435 | 58 | 180 | 3.0 | 6.0 | 0.00 | 0.00 | 0.00 | 69 | 1013.7 |
| 20260507110422 | 58 | 192 | 3.0 | 12.0 | 0.00 | 0.00 | 0.00 | 69 | 1013.7 |
| 20260507110410 | 58 | 239 | 3.0 | 12.0 | 0.00 | 0.00 | 0.00 | 69 | 1013.7 |
| 20260507110344 | 58 | 200 | 2.0 | 12.0 | 0.00 | 0.00 | 0.00 | 69 | 1013.6 |
| 20260507105802 | 58 | 244 | 2.0 | 12.0 | 0.00 | 0.00 | 0.00 | 70 | 1013.6 |
| 20260507105713 | 58 | 167 | 2.0 | 12.0 | 0.00 | 0.00 | 0.00 | 70 | 1013.6 |
| 20260507105623 | 58 | 234 | 3.0 | 12.0 | 0.00 | 0.00 | 0.00 | 70 | 1013.6 |
| 20260507105537 | 58 | 192 | 3.0 | 12.0 | 0.00 | 0.00 | 0.00 | 70 | 1013.7 |
| 20260507105523 | 58 | 223 | 1.0 | 12.0 | 0.00 | 0.00 | 0.00 | 70 | 1013.7 |
| 20260507105207 | 58 | 215 | 0.0 | 6.0 | 0.00 | 0.00 | 0.00 | 70 | 1013.7 |
| 20260507105103 | 58 | 234 | 0.0 | 6.0 | 0.00 | 0.00 | 0.00 | 70 | 1013.6 |
| 20260507105029 | 58 | 69 | 0.0 | 6.0 | 0.00 | 0.00 | 0.00 | 70 | 1013.7 |
| 20260507105020 | 58 | 196 | 1.0 | 6.0 | 0.00 | 0.00 | 0.00 | 70 | 1013.7 |
| 20260507104705 | 58 | 196 | 3.0 | 6.0 | 0.00 | 0.00 | 0.00 | 70 | 1013.7 |
| 20260507104601 | 58 | 156 | 1.0 | 6.0 | 0.00 | 0.00 | 0.00 | 70 | 1013.7 |
| 20260507104506 | 58 | 228 | 2.0 | 6.0 | 0.00 | 0.00 | 0.00 | 70 | 1013.7 |
| 20260507104401 | 58 | 137 | 2.0 | 6.0 | 0.00 | 0.00 | 0.00 | 70 | 1013.7 |
| 20260507104302 | 58 | 132 | 2.0 | 6.0 | 0.00 | 0.00 | 0.00 | 70 | 1013.7 |
| 20260507104206 | 58 | 234 | 1.0 | 6.0 | 0.00 | 0.00 | 0.00 | 70 | 1013.7 |
| 20260507104136 | 58 | 150 | 0.0 | 6.0 | 0.00 | 0.00 | 0.00 | 70 | 1013.7 |
| 20260507104124 | 59 | 294 | 0.0 | 6.0 | 0.00 | 0.00 | 0.00 | 70 | 1013.7 |
| 20260507103846 | 59 | 224 | 2.0 | 6.0 | 0.00 | 0.00 | 0.00 | 70 | 1013.7 |
| 20260507103833 | 59 | 178 | 2.0 | 6.0 | 0.00 | 0.00 | 0.00 | 70 | 1013.7 |
| 20260507103502 | 59 | 191 | 1.0 | 5.0 | 0.00 | 0.00 | 0.00 | 70 | 1013.7 |
| 20260507103403 | 58 | 161 | 2.0 | 5.0 | 0.00 | 0.00 | 0.00 | 71 | 1013.7 |
| 20260507103302 | 58 | 250 | 2.0 | 5.0 | 0.00 | 0.00 | 0.00 | 71 | 1013.7 |
| 20260507103216 | 58 | 216 | 2.0 | 5.0 | 0.00 | 0.00 | 0.00 | 71 | 1013.7 |
| 20260507103148 | 58 | 202 | 2.0 | 5.0 | 0.00 | 0.00 | 0.00 | 71 | 1013.7 |
| 20260507103134 | 58 | 188 | 2.0 | 8.0 | 0.00 | 0.00 | 0.00 | 71 | 1013.6 |
| 20260507103123 | 58 | 179 | 2.0 | 8.0 | 0.00 | 0.00 | 0.00 | 71 | 1013.7 |
| 20260507103111 | 58 | 237 | 2.0 | 8.0 | 0.00 | 0.00 | 0.00 | 71 | 1013.6 |
| 20260507103100 | 58 | 267 | 2.0 | 8.0 | 0.00 | 0.00 | 0.00 | 71 | 1013.5 |
| 20260507103036 | 58 | 192 | 2.0 | 8.0 | 0.00 | 0.00 | 0.00 | 71 | 1013.6 |
| 20260507102803 | 58 | 190 | 3.0 | 8.0 | 0.00 | 0.00 | 0.00 | 72 | 1013.6 |
| 20260507102753 | 58 | 213 | 4.0 | 8.0 | 0.00 | 0.00 | 0.00 | 72 | 1013.5 |
| 20260507102509 | 58 | 228 | 2.0 | 8.0 | 0.00 | 0.00 | 0.00 | 72 | 1013.5 |
| 20260507102018 | 58 | 166 | 1.0 | 4.0 | 0.00 | 0.00 | 0.00 | 71 | 1013.6 |
| 20260507102006 | 58 | 233 | 0.0 | 4.0 | 0.00 | 0.00 | 0.00 | 71 | 1013.6 |
| 20260507101940 | 58 | 219 | 0.0 | 3.0 | 0.00 | 0.00 | 0.00 | 71 | 1013.6 |
| 20260507101422 | 58 | 203 | 1.0 | 7.0 | 0.00 | 0.00 | 0.00 | 71 | 1013.6 |
| 20260507101103 | 58 | 181 | 0.0 | 7.0 | 0.00 | 0.00 | 0.00 | 71 | 1013.6 |
| 20260507101001 | 58 | 279 | 0.0 | 7.0 | 0.00 | 0.00 | 0.00 | 71 | 1013.5 |
| 20260507100937 | 59 | 193 | 1.0 | 7.0 | 0.00 | 0.00 | 0.00 | 71 | 1013.5 |
| 20260507100926 | 58 | 236 | 2.0 | 7.0 | 0.00 | 0.00 | 0.00 | 71 | 1013.6 |
| 20260507100638 | 58 | 209 | 2.0 | 7.0 | 0.00 | 0.00 | 0.00 | 71 | 1013.6 |
| 20260507100625 | 58 | 261 | 1.0 | 6.0 | 0.00 | 0.00 | 0.00 | 70 | 1013.5 |
| 20260507100303 | 58 | 247 | 2.0 | 6.0 | 0.00 | 0.00 | 0.00 | 70 | 1013.5 |
| 20260507100203 | 59 | 248 | 2.0 | 6.0 | 0.00 | 0.00 | 0.00 | 70 | 1013.5 |
| 20260507100015 | 58 | 170 | 1.0 | 4.0 | 0.00 | 0.00 | 0.00 | 70 | 1013.4 |
| 20260507095958 | 58 | 248 | 1.0 | 6.0 | 0.00 | 0.00 | 0.00 | 70 | 1013.5 |
| 20260507095948 | 59 | 237 | 2.0 | 6.0 | 0.00 | 0.00 | 0.00 | 70 | 1013.5 |
| 20260507095936 | 59 | 154 | 1.0 | 6.0 | 0.00 | 0.00 | 0.00 | 70 | 1013.6 |
| 20260507095912 | 59 | 188 | 1.0 | 6.0 | 0.00 | 0.00 | 0.00 | 70 | 1013.6 |
| 20260507095640 | 59 | 307 | 1.0 | 6.0 | 0.00 | 0.00 | 0.00 | 70 | 1013.4 |
| 20260507095409 | 59 | 267 | 2.0 | 6.0 | 0.00 | 0.00 | 0.00 | 69 | 1013.4 |
| 20260507095343 | 59 | 155 | 1.0 | 6.0 | 0.00 | 0.00 | 0.00 | 69 | 1013.4 |
| 20260507095330 | 59 | 258 | 2.0 | 6.0 | 0.00 | 0.00 | 0.00 | 69 | 1013.4 |
| 20260507094841 | 59 | 152 | 3.0 | 7.0 | 0.00 | 0.00 | 0.00 | 69 | 1013.3 |
| 20260507094502 | 59 | 186 | 1.0 | 7.0 | 0.00 | 0.00 | 0.00 | 69 | 1013.4 |
| 20260507094400 | 59 | 260 | 3.0 | 11.0 | 0.00 | 0.00 | 0.00 | 69 | 1013.3 |
| 20260507094303 | 59 | 209 | 2.0 | 11.0 | 0.00 | 0.00 | 0.00 | 69 | 1013.3 |
| 20260507094201 | 59 | 150 | 1.0 | 11.0 | 0.00 | 0.00 | 0.00 | 69 | 1013.3 |
| 20260507094103 | 59 | 237 | 2.0 | 11.0 | 0.00 | 0.00 | 0.00 | 69 | 1013.3 |
| 20260507094003 | 59 | 257 | 2.0 | 11.0 | 0.00 | 0.00 | 0.00 | 69 | 1013.3 |
| 20260507093903 | 59 | 148 | 2.0 | 11.0 | 0.00 | 0.00 | 0.00 | 70 | 1013.3 |
| 20260507093845 | 59 | 266 | 2.0 | 11.0 | 0.00 | 0.00 | 0.00 | 70 | 1013.3 |
| 20260507093834 | 59 | 252 | 3.0 | 11.0 | 0.00 | 0.00 | 0.00 | 70 | 1013.2 |
| 20260507093502 | 59 | 244 | 2.0 | 11.0 | 0.00 | 0.00 | 0.00 | 70 | 1013.3 |
| 20260507093401 | 59 | 215 | 3.0 | 10.0 | 0.00 | 0.00 | 0.00 | 70 | 1013.2 |
| 20260507093302 | 59 | 194 | 3.0 | 10.0 | 0.00 | 0.00 | 0.00 | 70 | 1013.3 |
| 20260507093202 | 59 | 180 | 2.0 | 10.0 | 0.00 | 0.00 | 0.00 | 70 | 1013.3 |
| 20260507093103 | 59 | 301 | 2.0 | 7.0 | 0.00 | 0.00 | 0.00 | 70 | 1013.3 |
| 20260507093001 | 59 | 270 | 2.0 | 7.0 | 0.00 | 0.00 | 0.00 | 70 | 1013.4 |
| 20260507092903 | 59 | 212 | 2.0 | 7.0 | 0.00 | 0.00 | 0.00 | 69 | 1013.4 |
| 20260507092844 | 59 | 234 | 1.0 | 7.0 | 0.00 | 0.00 | 0.00 | 69 | 1013.4 |
| 20260507092833 | 59 | 268 | 2.0 | 7.0 | 0.00 | 0.00 | 0.00 | 69 | 1013.4 |
| 20260507092502 | 59 | 130 | 2.0 | 7.0 | 0.00 | 0.00 | 0.00 | 69 | 1013.4 |
| 20260507092400 | 59 | 262 | 2.0 | 7.0 | 0.00 | 0.00 | 0.00 | 69 | 1013.4 |
| 20260507092306 | 59 | 284 | 3.0 | 7.0 | 0.00 | 0.00 | 0.00 | 69 | 1013.4 |
| 20260507092204 | 59 | 178 | 4.0 | 7.0 | 0.00 | 0.00 | 0.00 | 69 | 1013.5 |
| 20260507092104 | 59 | 271 | 3.0 | 7.0 | 0.00 | 0.00 | 0.00 | 69 | 1013.4 |
| 20260507092001 | 59 | 268 | 3.0 | 7.0 | 0.00 | 0.00 | 0.00 | 69 | 1013.4 |
| 20260507091902 | 59 | 267 | 3.0 | 7.0 | 0.00 | 0.00 | 0.00 | 69 | 1013.5 |
| 20260507091802 | 59 | 266 | 3.0 | 7.0 | 0.00 | 0.00 | 0.00 | 69 | 1013.4 |
| 20260507091702 | 60 | 265 | 1.0 | 7.0 | 0.00 | 0.00 | 0.00 | 69 | 1013.4 |
| 20260507091614 | 60 | 182 | 0.0 | 6.0 | 0.00 | 0.00 | 0.00 | 69 | 1013.5 |
| 20260507091601 | 60 | 244 | 2.0 | 6.0 | 0.00 | 0.00 | 0.00 | 69 | 1013.5 |
| 20260507091550 | 60 | 217 | 2.0 | 6.0 | 0.00 | 0.00 | 0.00 | 69 | 1013.4 |
| 20260507091203 | 60 | 230 | 2.0 | 8.0 | 0.00 | 0.00 | 0.00 | 68 | 1013.4 |
| 20260507091103 | 60 | 184 | 3.0 | 8.0 | 0.00 | 0.00 | 0.00 | 68 | 1013.4 |
| 20260507091001 | 60 | 217 | 2.0 | 8.0 | 0.00 | 0.00 | 0.00 | 68 | 1013.5 |
| 20260507090902 | 60 | 251 | 2.0 | 10.0 | 0.00 | 0.00 | 0.00 | 68 | 1013.5 |
| 20260507090802 | 60 | 238 | 2.0 | 10.0 | 0.00 | 0.00 | 0.00 | 67 | 1013.5 |
| 20260507090703 | 60 | 244 | 3.0 | 10.0 | 0.00 | 0.00 | 0.00 | 67 | 1013.6 |
| 20260507090602 | 60 | 218 | 3.0 | 10.0 | 0.00 | 0.00 | 0.00 | 67 | 1013.5 |
| 20260507090503 | 60 | 250 | 3.0 | 10.0 | 0.00 | 0.00 | 0.00 | 67 | 1013.4 |
| 20260507090402 | 60 | 232 | 3.0 | 10.0 | 0.00 | 0.00 | 0.00 | 67 | 1013.5 |
| 20260507090302 | 60 | 238 | 3.0 | 10.0 | 0.00 | 0.00 | 0.00 | 67 | 1013.5 |
| 20260507090201 | 60 | 193 | 4.0 | 10.0 | 0.00 | 0.00 | 0.00 | 67 | 1013.5 |
| 20260507090004 | 60 | 208 | 4.0 | 10.0 | 0.00 | 0.00 | 0.00 | 67 | 1013.5 |
| 20260507085903 | 60 | 258 | 4.0 | 10.0 | 0.00 | 0.00 | 0.00 | 67 | 1013.5 |
| 20260507085800 | 60 | 254 | 3.0 | 10.0 | 0.00 | 0.00 | 0.00 | 67 | 1013.4 |
| 20260507085702 | 60 | 262 | 3.0 | 10.0 | 0.00 | 0.00 | 0.00 | 67 | 1013.5 |
| 20260507085600 | 60 | 282 | 4.0 | 10.0 | 0.00 | 0.00 | 0.00 | 67 | 1013.5 |
| 20260507085502 | 60 | 231 | 4.0 | 10.0 | 0.00 | 0.00 | 0.00 | 67 | 1013.5 |
| 20260507085400 | 60 | 273 | 4.0 | 10.0 | 0.00 | 0.00 | 0.00 | 67 | 1013.5 |
| 20260507085301 | 60 | 254 | 4.0 | 10.0 | 0.00 | 0.00 | 0.00 | 67 | 1013.6 |
| 20260507085201 | 60 | 265 | 2.0 | 10.0 | 0.00 | 0.00 | 0.00 | 67 | 1013.6 |
| 20260507085102 | 60 | 288 | 2.0 | 7.0 | 0.00 | 0.00 | 0.00 | 67 | 1013.6 |
| 20260507085002 | 60 | 237 | 2.0 | 7.0 | 0.00 | 0.00 | 0.00 | 67 | 1013.5 |
| 20260507084903 | 60 | 246 | 2.0 | 7.0 | 0.00 | 0.00 | 0.00 | 67 | 1013.5 |
| 20260507084802 | 60 | 220 | 2.0 | 7.0 | 0.00 | 0.00 | 0.00 | 67 | 1013.5 |
| 20260507084708 | 60 | 294 | 3.0 | 7.0 | 0.00 | 0.00 | 0.00 | 67 | 1013.6 |
| 20260507084643 | 60 | 206 | 2.0 | 7.0 | 0.00 | 0.00 | 0.00 | 67 | 1013.6 |
| 20260507084630 | 60 | 234 | 1.0 | 7.0 | 0.00 | 0.00 | 0.00 | 67 | 1013.5 |
| 20260507084618 | 60 | 256 | 1.0 | 4.0 | 0.00 | 0.00 | 0.00 | 67 | 1013.6 |
| 20260507084348 | 60 | 269 | 1.0 | 5.0 | 0.00 | 0.00 | 0.00 | 67 | 1013.5 |
| 20260507084324 | 60 | 265 | 2.0 | 6.0 | 0.00 | 0.00 | 0.00 | 67 | 1013.5 |
| 20260507084242 | 60 | 163 | 2.0 | 6.0 | 0.00 | 0.00 | 0.00 | 67 | 1013.6 |
| 20260507083701 | 60 | 180 | 2.0 | 6.0 | 0.00 | 0.00 | 0.00 | 66 | 1013.5 |
| 20260507083613 | 60 | 197 | 2.0 | 6.0 | 0.00 | 0.00 | 0.00 | 66 | 1013.5 |
| 20260507083501 | 60 | 217 | 2.0 | 6.0 | 0.00 | 0.00 | 0.00 | 66 | 1013.5 |
| 20260507083401 | 60 | 194 | 3.0 | 6.0 | 0.00 | 0.00 | 0.00 | 66 | 1013.5 |
| 20260507083301 | 60 | 171 | 2.0 | 6.0 | 0.00 | 0.00 | 0.00 | 66 | 1013.5 |
| 20260507083201 | 60 | 184 | 2.0 | 6.0 | 0.00 | 0.00 | 0.00 | 66 | 1013.6 |
| 20260507083112 | 60 | 182 | 3.0 | 5.0 | 0.00 | 0.00 | 0.00 | 66 | 1013.6 |
| 20260507083002 | 60 | 202 | 2.0 | 5.0 | 0.00 | 0.00 | 0.00 | 66 | 1013.5 |
| 20260507082900 | 60 | 142 | 2.0 | 5.0 | 0.00 | 0.00 | 0.00 | 66 | 1013.6 |
| 20260507082800 | 60 | 204 | 1.0 | 5.0 | 0.00 | 0.00 | 0.00 | 66 | 1013.6 |
| 20260507082701 | 60 | 197 | 1.0 | 4.0 | 0.00 | 0.00 | 0.00 | 66 | 1013.6 |
| 20260507082635 | 61 | 166 | 1.0 | 4.0 | 0.00 | 0.00 | 0.00 | 66 | 1013.5 |
| 20260507082610 | 61 | 169 | 2.0 | 4.0 | 0.00 | 0.00 | 0.00 | 66 | 1013.6 |
| 20260507082559 | 61 | 193 | 2.0 | 4.0 | 0.00 | 0.00 | 0.00 | 66 | 1013.6 |
| 20260507082548 | 61 | 215 | 2.0 | 4.0 | 0.00 | 0.00 | 0.00 | 66 | 1013.6 |
| 20260507082001 | 61 | 182 | 0.0 | 3.0 | 0.00 | 0.00 | 0.00 | 66 | 1013.6 |
| 20260507081901 | 61 | 220 | 1.0 | 3.0 | 0.00 | 0.00 | 0.00 | 66 | 1013.7 |
| 20260507081802 | 61 | 221 | 1.0 | 3.0 | 0.00 | 0.00 | 0.00 | 66 | 1013.7 |
| 20260507081701 | 61 | 223 | 1.0 | 3.0 | 0.00 | 0.00 | 0.00 | 66 | 1013.7 |
| 20260507081611 | 61 | 237 | 1.0 | 4.0 | 0.00 | 0.00 | 0.00 | 65 | 1013.7 |
| 20260507081502 | 61 | 235 | 1.0 | 4.0 | 0.00 | 0.00 | 0.00 | 65 | 1013.7 |
| 20260507081402 | 61 | 201 | 2.0 | 4.0 | 0.00 | 0.00 | 0.00 | 65 | 1013.7 |
| 20260507081307 | 61 | 193 | 2.0 | 4.0 | 0.00 | 0.00 | 0.00 | 65 | 1013.7 |
| 20260507081203 | 61 | 180 | 2.0 | 4.0 | 0.00 | 0.00 | 0.00 | 65 | 1013.7 |
| 20260507081107 | 61 | 211 | 2.0 | 4.0 | 0.00 | 0.00 | 0.00 | 65 | 1013.7 |
| 20260507081003 | 61 | 229 | 2.0 | 4.0 | 0.00 | 0.00 | 0.00 | 65 | 1013.8 |
| 20260507080902 | 62 | 253 | 2.0 | 4.0 | 0.00 | 0.00 | 0.00 | 65 | 1013.7 |
| 20260507080803 | 62 | 260 | 2.0 | 4.0 | 0.00 | 0.00 | 0.00 | 65 | 1013.7 |
| 20260507080702 | 62 | 270 | 2.0 | 4.0 | 0.00 | 0.00 | 0.00 | 65 | 1013.7 |
| 20260507080605 | 62 | 271 | 2.0 | 9.0 | 0.00 | 0.00 | 0.00 | 64 | 1013.6 |
| 20260507080532 | 62 | 282 | 1.0 | 9.0 | 0.00 | 0.00 | 0.00 | 64 | 1013.6 |
| 20260507080517 | 62 | 254 | 1.0 | 9.0 | 0.00 | 0.00 | 0.00 | 64 | 1013.6 |
| 20260507080158 | 62 | 223 | 2.0 | 9.0 | 0.00 | 0.00 | 0.00 | 64 | 1013.5 |
| 20260507080132 | 62 | 246 | 2.0 | 9.0 | 0.00 | 0.00 | 0.00 | 64 | 1013.5 |
| 20260507080110 | 62 | 192 | 2.0 | 9.0 | 0.00 | 0.00 | 0.00 | 64 | 1013.5 |
| 20260507075749 | 62 | 245 | 5.0 | 9.0 | 0.00 | 0.00 | 0.00 | 64 | 1013.5 |
| 20260507075649 | 62 | 238 | 4.0 | 9.0 | 0.00 | 0.00 | 0.00 | 63 | 1013.5 |
| 20260507075632 | 62 | 269 | 4.0 | 8.0 | 0.00 | 0.00 | 0.00 | 63 | 1013.6 |
| 20260507075607 | 62 | 255 | 3.0 | 8.0 | 0.00 | 0.00 | 0.00 | 63 | 1013.6 |
| 20260507075246 | 62 | 209 | 3.0 | 8.0 | 0.00 | 0.00 | 0.00 | 63 | 1013.6 |
| 20260507075145 | 62 | 263 | 3.0 | 8.0 | 0.00 | 0.00 | 0.00 | 63 | 1013.6 |
| 20260507075118 | 62 | 271 | 3.0 | 8.0 | 0.00 | 0.00 | 0.00 | 63 | 1013.6 |
| 20260507075101 | 63 | 258 | 3.0 | 7.0 | 0.00 | 0.00 | 0.00 | 63 | 1013.6 |
| 20260507075050 | 63 | 269 | 2.0 | 7.0 | 0.00 | 0.00 | 0.00 | 63 | 1013.6 |
| 20260507074815 | 63 | 263 | 2.0 | 7.0 | 0.00 | 0.00 | 0.00 | 63 | 1013.5 |
| 20260507074751 | 63 | 258 | 2.0 | 10.0 | 0.00 | 0.00 | 0.00 | 62 | 1013.5 |
| 20260507074738 | 63 | 130 | 3.0 | 10.0 | 0.00 | 0.00 | 0.00 | 62 | 1013.5 |
| 20260507074201 | 63 | 265 | 2.0 | 10.0 | 0.00 | 0.00 | 0.00 | 62 | 1013.5 |
| 20260507074134 | 63 | 232 | 2.0 | 10.0 | 0.00 | 0.00 | 0.00 | 63 | 1013.4 |
| 20260507074122 | 63 | 228 | 2.0 | 10.0 | 0.00 | 0.00 | 0.00 | 63 | 1013.5 |
| 20260507073850 | 63 | 225 | 4.0 | 11.0 | 0.00 | 0.00 | 0.00 | 63 | 1013.5 |
| 20260507073531 | 63 | 265 | 3.0 | 15.0 | 0.00 | 0.00 | 0.00 | 62 | 1013.4 |
| 20260507073431 | 63 | 250 | 2.0 | 15.0 | 0.00 | 0.00 | 0.00 | 62 | 1013.4 |
| 20260507073331 | 63 | 286 | 3.0 | 15.0 | 0.00 | 0.00 | 0.00 | 62 | 1013.4 |
| 20260507073234 | 63 | 296 | 5.0 | 15.0 | 0.00 | 0.00 | 0.00 | 62 | 1013.4 |
| 20260507073217 | 63 | 273 | 5.0 | 15.0 | 0.00 | 0.00 | 0.00 | 62 | 1013.4 |
| 20260507073150 | 63 | 286 | 5.0 | 15.0 | 0.00 | 0.00 | 0.00 | 63 | 1013.4 |
| 20260507072831 | 63 | 262 | 5.0 | 15.0 | 0.00 | 0.00 | 0.00 | 63 | 1013.3 |
| 20260507072728 | 63 | 254 | 7.0 | 15.0 | 0.00 | 0.00 | 0.00 | 63 | 1013.3 |
| 20260507072629 | 63 | 259 | 8.0 | 15.0 | 0.00 | 0.00 | 0.00 | 62 | 1013.3 |
| 20260507072529 | 63 | 290 | 6.0 | 14.0 | 0.00 | 0.00 | 0.00 | 63 | 1013.2 |
| 20260507072437 | 63 | 262 | 7.0 | 14.0 | 0.00 | 0.00 | 0.00 | 62 | 1013.2 |
| 20260507072405 | 63 | 265 | 8.0 | 14.0 | 0.00 | 0.00 | 0.00 | 63 | 1013.2 |
| 20260507072354 | 63 | 209 | 7.0 | 14.0 | 0.00 | 0.00 | 0.00 | 63 | 1013.2 |
| 20260507072105 | 63 | 238 | 4.0 | 13.0 | 0.00 | 0.00 | 0.00 | 63 | 1013.1 |
| 20260507072051 | 63 | 140 | 3.0 | 13.0 | 0.00 | 0.00 | 0.00 | 63 | 1013.1 |
| 20260507071728 | 63 | 352 | 5.0 | 13.0 | 0.00 | 0.00 | 0.00 | 63 | 1013.0 |
| 20260507071639 | 63 | 275 | 4.0 | 13.0 | 0.00 | 0.00 | 0.00 | 63 | 1013.0 |
| 20260507071612 | 63 | 250 | 5.0 | 11.0 | 0.00 | 0.00 | 0.00 | 63 | 1012.9 |
| 20260507071601 | 63 | 278 | 4.0 | 11.0 | 0.00 | 0.00 | 0.00 | 63 | 1012.9 |
| 20260507071550 | 63 | 202 | 3.0 | 10.0 | 0.00 | 0.00 | 0.00 | 63 | 1012.9 |
| 20260507071537 | 63 | 223 | 4.0 | 10.0 | 0.00 | 0.00 | 0.00 | 64 | 1012.8 |
| 20260507071525 | 62 | 188 | 3.0 | 10.0 | 0.00 | 0.00 | 0.00 | 64 | 1012.9 |
| 20260507071209 | 62 | 223 | 5.0 | 9.0 | 0.00 | 0.00 | 0.00 | 64 | 1012.9 |
| 20260507070630 | 62 | 294 | 3.0 | 11.0 | 0.00 | 0.00 | 0.00 | 64 | 1012.8 |
| 20260507070530 | 62 | 301 | 3.0 | 11.0 | 0.00 | 0.00 | 0.00 | 65 | 1012.8 |
| 20260507070430 | 62 | 261 | 3.0 | 11.0 | 0.00 | 0.00 | 0.00 | 64 | 1012.7 |
| 20260507070328 | 62 | 292 | 3.0 | 11.0 | 0.00 | 0.00 | 0.00 | 64 | 1012.8 |
| 20260507070230 | 63 | 293 | 4.0 | 11.0 | 0.00 | 0.00 | 0.00 | 64 | 1012.8 |
| 20260507070130 | 63 | 317 | 6.0 | 11.0 | 0.00 | 0.00 | 0.00 | 64 | 1012.7 |
| 20260507070040 | 63 | 277 | 6.0 | 11.0 | 0.00 | 0.00 | 0.00 | 64 | 1012.7 |
| 20260507070001 | 63 | 272 | 5.0 | 14.0 | 0.00 | 0.00 | 0.00 | 63 | 1012.6 |
| 20260507065830 | 63 | 267 | 4.0 | 14.0 | 0.00 | 0.00 | 0.00 | 63 | 1012.6 |
| 20260507065729 | 63 | 310 | 3.0 | 14.0 | 0.00 | 0.00 | 0.00 | 63 | 1012.6 |
| 20260507065630 | 63 | 217 | 4.0 | 14.0 | 0.00 | 0.00 | 0.00 | 63 | 1012.5 |
| 20260507065604 | 63 | 202 | 3.0 | 14.0 | 0.00 | 0.00 | 0.00 | 63 | 1012.5 |
| 20260507065548 | 63 | 182 | 4.0 | 14.0 | 0.00 | 0.00 | 0.00 | 63 | 1012.4 |
| 20260507065227 | 63 | 242 | 4.0 | 14.0 | 0.00 | 0.00 | 0.00 | 63 | 1012.4 |
| 20260507065125 | 63 | 239 | 4.0 | 14.0 | 0.00 | 0.00 | 0.00 | 63 | 1012.4 |
| 20260507065057 | 63 | 225 | 4.0 | 14.0 | 0.00 | 0.00 | 0.00 | 62 | 1012.4 |
| 20260507065044 | 64 | 164 | 3.0 | 11.0 | 0.00 | 0.00 | 0.00 | 62 | 1012.4 |
| 20260507064722 | 64 | 239 | 6.0 | 11.0 | 0.00 | 0.00 | 0.00 | 62 | 1012.4 |
| 20260507064623 | 64 | 176 | 4.0 | 11.0 | 0.00 | 0.00 | 0.00 | 62 | 1012.3 |
| 20260507064522 | 64 | 236 | 3.0 | 11.0 | 0.00 | 0.00 | 0.00 | 62 | 1012.3 |
| 20260507064430 | 64 | 203 | 4.0 | 11.0 | 0.00 | 0.00 | 0.00 | 62 | 1012.3 |
| 20260507064415 | 64 | 194 | 5.0 | 11.0 | 0.00 | 0.00 | 0.00 | 61 | 1012.3 |
| 20260507064404 | 64 | 264 | 4.0 | 12.0 | 0.00 | 0.00 | 0.00 | 61 | 1012.2 |
| 20260507064117 | 64 | 267 | 4.0 | 12.0 | 0.00 | 0.00 | 0.00 | 61 | 1012.2 |
| 20260507064105 | 64 | 219 | 3.0 | 12.0 | 0.00 | 0.00 | 0.00 | 61 | 1012.2 |
| 20260507063714 | 64 | 175 | 2.0 | 12.0 | 0.00 | 0.00 | 0.00 | 61 | 1012.1 |
| 20260507063615 | 64 | 227 | 2.0 | 12.0 | 0.00 | 0.00 | 0.00 | 61 | 1012.1 |
| 20260507063513 | 64 | 238 | 2.0 | 12.0 | 0.00 | 0.00 | 0.00 | 61 | 1012.1 |
| 20260507063416 | 64 | 205 | 4.0 | 12.0 | 0.00 | 0.00 | 0.00 | 60 | 1012.1 |
| 20260507063312 | 64 | 198 | 4.0 | 12.0 | 0.00 | 0.00 | 0.00 | 60 | 1012.1 |
| 20260507063212 | 64 | 200 | 3.0 | 8.0 | 0.00 | 0.00 | 0.00 | 60 | 1012.0 |
| 20260507063111 | 64 | 246 | 2.0 | 8.0 | 0.00 | 0.00 | 0.00 | 60 | 1012.1 |
| 20260507063011 | 64 | 274 | 2.0 | 8.0 | 0.00 | 0.00 | 0.00 | 60 | 1012.1 |
| 20260507062910 | 64 | 239 | 3.0 | 8.0 | 0.00 | 0.00 | 0.00 | 60 | 1012.1 |
| 20260507062810 | 64 | 244 | 3.0 | 8.0 | 0.00 | 0.00 | 0.00 | 60 | 1012.1 |
| 20260507062750 | 64 | 221 | 3.0 | 6.0 | 0.00 | 0.00 | 0.00 | 60 | 1012.1 |
| 20260507062739 | 64 | 227 | 3.0 | 6.0 | 0.00 | 0.00 | 0.00 | 60 | 1012.1 |
| 20260507062407 | 64 | 242 | 4.0 | 7.0 | 0.00 | 0.00 | 0.00 | 60 | 1012.1 |
| 20260507062306 | 64 | 236 | 4.0 | 7.0 | 0.00 | 0.00 | 0.00 | 60 | 1012.1 |
| 20260507062205 | 65 | 261 | 2.0 | 7.0 | 0.00 | 0.00 | 0.00 | 61 | 1012.1 |
| 20260507062101 | 65 | 247 | 2.0 | 7.0 | 0.00 | 0.00 | 0.00 | 61 | 1012.1 |
| 20260507062004 | 65 | 160 | 2.0 | 7.0 | 0.00 | 0.00 | 0.00 | 60 | 1012.2 |
| 20260507061902 | 65 | 241 | 2.0 | 7.0 | 0.00 | 0.00 | 0.00 | 61 | 1012.1 |
| 20260507061802 | 65 | 209 | 3.0 | 10.0 | 0.00 | 0.00 | 0.00 | 60 | 1012.2 |
| 20260507061700 | 65 | 127 | 3.0 | 10.0 | 0.00 | 0.00 | 0.00 | 60 | 1012.3 |
| 20260507061608 | 65 | 225 | 4.0 | 10.0 | 0.00 | 0.00 | 0.00 | 60 | 1012.3 |
| 20260507061502 | 65 | 231 | 4.0 | 10.0 | 0.00 | 0.00 | 0.00 | 60 | 1012.3 |
| 20260507061404 | 65 | 198 | 3.0 | 10.0 | 0.00 | 0.00 | 0.00 | 60 | 1012.3 |
| 20260507061339 | 65 | 284 | 2.0 | 10.0 | 0.00 | 0.00 | 0.00 | 60 | 1012.4 |
| 20260507061325 | 65 | 320 | 4.0 | 10.0 | 0.00 | 0.00 | 0.00 | 60 | 1012.4 |
| 20260507061004 | 65 | 216 | 3.0 | 12.0 | 0.00 | 0.00 | 0.00 | 60 | 1012.5 |
| 20260507060916 | 65 | 243 | 2.0 | 12.0 | 0.00 | 0.00 | 0.00 | 60 | 1012.3 |
| 20260507060901 | 65 | 188 | 3.0 | 12.0 | 0.00 | 0.00 | 0.00 | 60 | 1012.3 |
| 20260507060849 | 65 | 282 | 3.0 | 12.0 | 0.00 | 0.00 | 0.00 | 59 | 1012.4 |
| 20260507060838 | 65 | 239 | 3.0 | 12.0 | 0.00 | 0.00 | 0.00 | 59 | 1012.3 |
| 20260507060522 | 65 | 269 | 2.0 | 12.0 | 0.00 | 0.00 | 0.00 | 59 | 1012.3 |
| 20260507060203 | 65 | 148 | 4.0 | 12.0 | 0.00 | 0.00 | 0.00 | 59 | 1012.3 |
| 20260507060101 | 66 | 206 | 3.0 | 12.0 | 0.00 | 0.00 | 0.00 | 59 | 1012.3 |
| 20260507060005 | 66 | 248 | 3.0 | 11.0 | 0.00 | 0.00 | 0.00 | 59 | 1012.3 |
| 20260507055901 | 66 | 197 | 4.0 | 11.0 | 0.00 | 0.00 | 0.00 | 58 | 1012.3 |
| 20260507055805 | 66 | 192 | 4.0 | 11.0 | 0.00 | 0.00 | 0.00 | 58 | 1012.2 |
| 20260507055702 | 66 | 198 | 3.0 | 11.0 | 0.00 | 0.00 | 0.00 | 58 | 1012.2 |
| 20260507055605 | 66 | 187 | 3.0 | 9.0 | 0.00 | 0.00 | 0.00 | 58 | 1012.2 |
| 20260507055501 | 66 | 177 | 4.0 | 9.0 | 0.00 | 0.00 | 0.00 | 58 | 1012.2 |
| 20260507055404 | 66 | 209 | 4.0 | 9.0 | 0.00 | 0.00 | 0.00 | 58 | 1012.3 |
| 20260507055301 | 66 | 262 | 3.0 | 9.0 | 0.00 | 0.00 | 0.00 | 58 | 1012.2 |
| 20260507055206 | 66 | 169 | 3.0 | 9.0 | 0.00 | 0.00 | 0.00 | 58 | 1012.2 |
| 20260507055101 | 66 | 229 | 3.0 | 9.0 | 0.00 | 0.00 | 0.00 | 58 | 1012.3 |
| 20260507055005 | 66 | 178 | 3.0 | 9.0 | 0.00 | 0.00 | 0.00 | 58 | 1012.2 |
| 20260507054900 | 66 | 192 | 2.0 | 9.0 | 0.00 | 0.00 | 0.00 | 57 | 1012.2 |
| 20260507054837 | 66 | 225 | 4.0 | 14.0 | 0.00 | 0.00 | 0.00 | 57 | 1012.2 |
| 20260507054823 | 66 | 203 | 4.0 | 14.0 | 0.00 | 0.00 | 0.00 | 57 | 1012.3 |
| 20260507054501 | 66 | 176 | 3.0 | 14.0 | 0.00 | 0.00 | 0.00 | 57 | 1012.2 |
| 20260507054404 | 66 | 232 | 4.0 | 14.0 | 0.00 | 0.00 | 0.00 | 57 | 1012.2 |
| 20260507054302 | 66 | 236 | 4.0 | 14.0 | 0.00 | 0.00 | 0.00 | 57 | 1012.2 |
| 20260507054203 | 66 | 225 | 4.0 | 14.0 | 0.00 | 0.00 | 0.00 | 57 | 1012.2 |
| 20260507054101 | 66 | 228 | 5.0 | 14.0 | 0.00 | 0.00 | 0.00 | 57 | 1012.3 |
| 20260507054001 | 66 | 254 | 5.0 | 14.0 | 0.00 | 0.00 | 0.00 | 57 | 1012.3 |
| 20260507053900 | 66 | 229 | 4.0 | 14.0 | 0.00 | 0.00 | 0.00 | 57 | 1012.3 |
| 20260507053802 | 66 | 180 | 4.0 | 12.0 | 0.00 | 0.00 | 0.00 | 57 | 1012.4 |
| 20260507053708 | 66 | 252 | 4.0 | 12.0 | 0.00 | 0.00 | 0.00 | 57 | 1012.4 |
| 20260507053600 | 66 | 120 | 4.0 | 9.0 | 0.00 | 0.00 | 0.00 | 57 | 1012.4 |
| 20260507053501 | 66 | 223 | 3.0 | 9.0 | 0.00 | 0.00 | 0.00 | 57 | 1012.4 |
| 20260507053402 | 66 | 223 | 2.0 | 9.0 | 0.00 | 0.00 | 0.00 | 57 | 1012.4 |
| 20260507053301 | 66 | 283 | 2.0 | 8.0 | 0.00 | 0.00 | 0.00 | 57 | 1012.3 |
| 20260507053200 | 66 | 186 | 3.0 | 8.0 | 0.00 | 0.00 | 0.00 | 57 | 1012.5 |
| 20260507053100 | 66 | 246 | 3.0 | 9.0 | 0.00 | 0.00 | 0.00 | 57 | 1012.5 |
| 20260507053014 | 66 | 206 | 3.0 | 9.0 | 0.00 | 0.00 | 0.00 | 57 | 1012.5 |
| 20260507052901 | 66 | 169 | 3.0 | 9.0 | 0.00 | 0.00 | 0.00 | 57 | 1012.5 |
| 20260507052806 | 66 | 205 | 3.0 | 9.0 | 0.00 | 0.00 | 0.00 | 57 | 1012.5 |
| 20260507052702 | 66 | 213 | 2.0 | 9.0 | 0.00 | 0.00 | 0.00 | 57 | 1012.5 |
| 20260507052604 | 66 | 169 | 4.0 | 9.0 | 0.00 | 0.00 | 0.00 | 57 | 1012.5 |
| 20260507052509 | 66 | 262 | 4.0 | 9.0 | 0.00 | 0.00 | 0.00 | 57 | 1012.5 |
| 20260507052436 | 66 | 217 | 4.0 | 9.0 | 0.00 | 0.00 | 0.00 | 57 | 1012.4 |
| 20260507052421 | 66 | 225 | 3.0 | 9.0 | 0.00 | 0.00 | 0.00 | 57 | 1012.5 |
| 20260507052102 | 67 | 177 | 4.0 | 8.0 | 0.00 | 0.00 | 0.00 | 57 | 1012.5 |
| 20260507052024 | 67 | 209 | 3.0 | 8.0 | 0.00 | 0.00 | 0.00 | 57 | 1012.5 |
| 20260507051959 | 67 | 189 | 2.0 | 8.0 | 0.00 | 0.00 | 0.00 | 57 | 1012.3 |
| 20260507051949 | 67 | 198 | 2.0 | 8.0 | 0.00 | 0.00 | 0.00 | 57 | 1012.4 |
| 20260507051936 | 67 | 221 | 3.0 | 8.0 | 0.00 | 0.00 | 0.00 | 57 | 1012.3 |
| 20260507051923 | 67 | 176 | 3.0 | 8.0 | 0.00 | 0.00 | 0.00 | 57 | 1012.3 |
| 20260507051640 | 67 | 170 | 2.0 | 8.0 | 0.00 | 0.00 | 0.00 | 57 | 1012.3 |
| 20260507051101 | 67 | 214 | 3.0 | 5.0 | 0.00 | 0.00 | 0.00 | 57 | 1012.2 |
| 20260507051003 | 67 | 267 | 1.0 | 5.0 | 0.00 | 0.00 | 0.00 | 57 | 1012.3 |
| 20260507050900 | 67 | 178 | 2.0 | 5.0 | 0.00 | 0.00 | 0.00 | 57 | 1012.2 |
| 20260507050802 | 67 | 155 | 2.0 | 5.0 | 0.00 | 0.00 | 0.00 | 57 | 1012.3 |
| 20260507050700 | 67 | 135 | 2.0 | 5.0 | 0.00 | 0.00 | 0.00 | 57 | 1012.3 |
| 20260507050601 | 67 | 232 | 2.0 | 6.0 | 0.00 | 0.00 | 0.00 | 57 | 1012.3 |
| 20260507050529 | 67 | 146 | 2.0 | 6.0 | 0.00 | 0.00 | 0.00 | 57 | 1012.3 |
| 20260507050506 | 67 | 148 | 2.0 | 6.0 | 0.00 | 0.00 | 0.00 | 57 | 1012.3 |
| 20260507050455 | 67 | 186 | 2.0 | 6.0 | 0.00 | 0.00 | 0.00 | 57 | 1012.3 |
| 20260507050442 | 67 | 207 | 1.0 | 6.0 | 0.00 | 0.00 | 0.00 | 57 | 1012.3 |
| 20260507045901 | 67 | 170 | 1.0 | 6.0 | 0.00 | 0.00 | 0.00 | 57 | 1012.3 |
| 20260507045804 | 67 | 192 | 2.0 | 6.0 | 0.00 | 0.00 | 0.00 | 56 | 1012.4 |
| 20260507045701 | 68 | 222 | 2.0 | 6.0 | 0.00 | 0.00 | 0.00 | 57 | 1012.4 |
| 20260507045601 | 68 | 195 | 2.0 | 6.0 | 0.00 | 0.00 | 0.00 | 57 | 1012.3 |
| 20260507045503 | 68 | 184 | 2.0 | 11.0 | 0.00 | 0.00 | 0.00 | 56 | 1012.4 |
| 20260507045403 | 68 | 173 | 2.0 | 11.0 | 0.00 | 0.00 | 0.00 | 56 | 1012.4 |
| 20260507045301 | 68 | 205 | 2.0 | 11.0 | 0.00 | 0.00 | 0.00 | 56 | 1012.3 |
| 20260507045201 | 68 | 185 | 1.0 | 11.0 | 0.00 | 0.00 | 0.00 | 56 | 1012.4 |
| 20260507045102 | 68 | 207 | 2.0 | 11.0 | 0.00 | 0.00 | 0.00 | 56 | 1012.4 |
| 20260507045004 | 68 | 201 | 2.0 | 11.0 | 0.00 | 0.00 | 0.00 | 55 | 1012.3 |
| 20260507044900 | 68 | 235 | 3.0 | 11.0 | 0.00 | 0.00 | 0.00 | 55 | 1012.4 |
| 20260507044801 | 68 | 158 | 4.0 | 11.0 | 0.00 | 0.00 | 0.00 | 55 | 1012.4 |
| 20260507044659 | 69 | 182 | 3.0 | 11.0 | 0.00 | 0.00 | 0.00 | 54 | 1012.4 |
| 20260507044601 | 69 | 185 | 3.0 | 11.0 | 0.00 | 0.00 | 0.00 | 54 | 1012.4 |
| 20260507044542 | 69 | 255 | 3.0 | 11.0 | 0.00 | 0.00 | 0.00 | 53 | 1012.4 |
| 20260507044517 | 69 | 188 | 2.0 | 11.0 | 0.00 | 0.00 | 0.00 | 52 | 1012.4 |
| 20260507044157 | 69 | 214 | 3.0 | 11.0 | 0.00 | 0.00 | 0.00 | 51 | 1012.4 |
| 20260507044058 | 69 | 163 | 4.0 | 11.0 | 0.00 | 0.00 | 0.00 | 51 | 1012.4 |
| 20260507043955 | 69 | 177 | 5.0 | 11.0 | 0.00 | 0.00 | 0.00 | 51 | 1012.4 |
| 20260507043854 | 69 | 195 | 6.0 | 11.0 | 0.00 | 0.00 | 0.00 | 50 | 1012.5 |
| 20260507043754 | 69 | 193 | 4.0 | 11.0 | 0.00 | 0.00 | 0.00 | 48 | 1012.5 |
| 20260507043714 | 69 | 184 | 3.0 | 6.0 | 0.00 | 0.00 | 0.00 | 46 | 1012.5 |
| 20260507043705 | 69 | 159 | 2.0 | 6.0 | 0.00 | 0.00 | 0.00 | 46 | 1012.5 |
| 20260507043654 | 69 | 159 | 2.0 | 6.0 | 0.00 | 0.00 | 0.00 | 46 | 1012.4 |
| 20260507043254 | 69 | 151 | 3.0 | 6.0 | 0.00 | 0.00 | 0.00 | 46 | 1012.4 |
| 20260507043232 | 69 | 178 | 4.0 | 6.0 | 0.00 | 0.00 | 0.00 | 46 | 1012.4 |
| 20260507043219 | 69 | 163 | 4.0 | 6.0 | 0.00 | 0.00 | 0.00 | 46 | 1012.4 |
| 20260507042927 | 70 | 151 | 1.0 | 4.0 | 0.00 | 0.00 | 0.00 | 45 | 1012.3 |
| 20260507042916 | 70 | 108 | 1.0 | 2.0 | 0.00 | 0.00 | 0.00 | 46 | 1012.3 |
| 20260507042905 | 70 | 108 | 1.0 | 2.0 | 0.00 | 0.00 | 0.00 | 45 | 1012.3 |
| 20260507042853 | 70 | 109 | 1.0 | 4.0 | 0.00 | 0.00 | 0.00 | 44 | 1012.3 |
| 20260507042838 | 70 | 82 | 0.0 | 4.0 | 0.00 | 0.00 | 0.00 | 44 | 1012.3 |
| 20260507042817 | 70 | 69 | 0.0 | 4.0 | 0.00 | 0.00 | 0.00 | 46 | 1012.3 |
| 20260507042807 | 70 | 71 | 0.0 | 4.0 | 0.00 | 0.00 | 0.00 | 45 | 1012.3 |
| 20260507041821 | 71 | 140 | 2.0 | 4.0 | 0.00 | 0.00 | 0.00 | 44 | 1012.2 |
| 20260507041808 | 71 | 179 | 1.0 | 4.0 | 0.00 | 0.00 | 0.00 | 44 | 1012.2 |
| 20260507041759 | 71 | 197 | 1.0 | 3.0 | 0.00 | 0.00 | 0.00 | 44 | 1012.3 |
| 20260507041746 | 71 | 196 | 2.0 | 3.0 | 0.00 | 0.00 | 0.00 | 44 | 1012.2 |
| 20260507041724 | 71 | 207 | 2.0 | 3.0 | 0.00 | 0.00 | 0.00 | 42 | 1012.2 |
| 20260507041452 | 71 | 225 | 1.0 | 3.0 | 0.00 | 0.00 | 0.00 | 42 | 1012.1 |
| 20260507040949 | 71 | 96 | 0.0 | 1.0 | 0.00 | 0.00 | 0.00 | 43 | 1012.1 |
| 20260507040654 | 71 | 95 | 0.0 | 1.0 | 0.00 | 0.00 | 0.00 | 42 | 1012.0 |
| 20260507040640 | 71 | 105 | 0.0 | 1.0 | 0.00 | 0.00 | 0.00 | 42 | 1012.0 |
| 20260507040630 | 71 | 109 | 0.0 | 1.0 | 0.00 | 0.00 | 0.00 | 41 | 1011.9 |
| 20260507040230 | 72 | 107 | 0.0 | 2.0 | 0.00 | 0.00 | 0.00 | 41 | 1011.9 |
| 20260507040132 | 72 | 107 | 0.0 | 2.0 | 0.00 | 0.00 | 0.00 | 42 | 1011.9 |
| 20260507040028 | 72 | 105 | 0.0 | 2.0 | 0.00 | 0.00 | 0.00 | 42 | 1011.9 |
| 20260507040011 | 72 | 94 | 0.0 | 2.0 | 0.00 | 0.00 | 0.00 | 40 | 1012.0 |
| 20260507035946 | 72 | 94 | 0.0 | 2.0 | 0.00 | 0.00 | 0.00 | 40 | 1011.9 |
| 20260507035625 | 72 | 95 | 0.0 | 2.0 | 0.00 | 0.00 | 0.00 | 41 | 1011.8 |
| 20260507035518 | 72 | 95 | 0.0 | 2.0 | 0.00 | 0.00 | 0.00 | 41 | 1011.8 |
| 20260507035420 | 72 | 95 | 1.0 | 2.0 | 0.00 | 0.00 | 0.00 | 41 | 1011.8 |
| 20260507035312 | 73 | 95 | 1.0 | 2.0 | 0.00 | 0.00 | 0.00 | 41 | 1011.8 |
| 20260507035212 | 73 | 98 | 1.0 | 2.0 | 0.00 | 0.00 | 0.00 | 41 | 1011.7 |
| 20260507035108 | 73 | 98 | 1.0 | 2.0 | 0.00 | 0.00 | 0.00 | 41 | 1011.7 |
| 20260507035006 | 73 | 98 | 1.0 | 2.0 | 0.00 | 0.00 | 0.00 | 40 | 1011.6 |
| 20260507034902 | 73 | 98 | 1.0 | 2.0 | 0.00 | 0.00 | 0.00 | 40 | 1011.6 |
| 20260507034803 | 73 | 94 | 1.0 | 4.0 | 0.00 | 0.00 | 0.00 | 40 | 1011.6 |
| 20260507034702 | 73 | 129 | 0.0 | 4.0 | 0.00 | 0.00 | 0.00 | 40 | 1011.6 |
| 20260507034642 | 73 | 164 | 0.0 | 4.0 | 0.00 | 0.00 | 0.00 | 40 | 1011.6 |
| 20260507034633 | 73 | 170 | 0.0 | 4.0 | 0.00 | 0.00 | 0.00 | 41 | 1011.6 |
| 20260507034303 | 74 | 170 | 0.0 | 5.0 | 0.00 | 0.00 | 0.00 | 42 | 1011.5 |
| 20260507034201 | 74 | 212 | 0.0 | 5.0 | 0.00 | 0.00 | 0.00 | 39 | 1011.5 |
| 20260507034102 | 74 | 287 | 1.0 | 5.0 | 0.00 | 0.00 | 0.00 | 39 | 1011.5 |
| 20260507034043 | 74 | 291 | 1.0 | 5.0 | 0.00 | 0.00 | 0.00 | 39 | 1011.5 |
| 20260507034022 | 74 | 304 | 1.0 | 5.0 | 0.00 | 0.00 | 0.00 | 38 | 1011.5 |
| 20260507033702 | 74 | 323 | 2.0 | 5.0 | 0.00 | 0.00 | 0.00 | 39 | 1011.4 |
| 20260507033607 | 74 | 308 | 2.0 | 5.0 | 0.00 | 0.00 | 0.00 | 39 | 1011.4 |
| 20260507033456 | 74 | 302 | 2.0 | 5.0 | 0.00 | 0.00 | 0.00 | 39 | 1011.4 |
| 20260507033356 | 74 | 331 | 2.0 | 4.0 | 0.00 | 0.00 | 0.00 | 39 | 1011.4 |
| 20260507033327 | 74 | 323 | 1.0 | 4.0 | 0.00 | 0.00 | 0.00 | 40 | 1011.4 |
| 20260507033315 | 74 | 0 | 1.0 | 2.0 | 0.00 | 0.00 | 0.00 | 40 | 1011.4 |
| 20260507032953 | 74 | 325 | 0.0 | 2.0 | 0.00 | 0.00 | 0.00 | 41 | 1011.3 |
| 20260507032847 | 74 | 319 | 0.0 | 2.0 | 0.00 | 0.00 | 0.00 | 41 | 1011.3 |
| 20260507032736 | 74 | 318 | 0.0 | 2.0 | 0.00 | 0.00 | 0.00 | 41 | 1011.3 |
| 20260507032635 | 74 | 317 | 0.0 | 2.0 | 0.00 | 0.00 | 0.00 | 41 | 1011.3 |
| 20260507032534 | 75 | 316 | 0.0 | 2.0 | 0.00 | 0.00 | 0.00 | 40 | 1011.3 |
| 20260507032509 | 75 | 316 | 0.0 | 2.0 | 0.00 | 0.00 | 0.00 | 40 | 1011.3 |
| 20260507032449 | 75 | 316 | 1.0 | 2.0 | 0.00 | 0.00 | 0.00 | 40 | 1011.3 |
| 20260507032204 | 75 | 302 | 1.0 | 2.0 | 0.00 | 0.00 | 0.00 | 39 | 1011.3 |
| 20260507032152 | 75 | 352 | 0.0 | 2.0 | 0.00 | 0.00 | 0.00 | 40 | 1011.2 |
| 20260507031829 | 75 | 352 | 1.0 | 2.0 | 0.00 | 0.00 | 0.00 | 39 | 1011.2 |
| 20260507031752 | 75 | 352 | 1.0 | 2.0 | 0.00 | 0.00 | 0.00 | 39 | 1011.2 |
| 20260507031735 | 75 | 316 | 1.0 | 2.0 | 0.00 | 0.00 | 0.00 | 39 | 1011.1 |
| 20260507031726 | 75 | 312 | 0.0 | 3.0 | 0.00 | 0.00 | 0.00 | 39 | 1011.1 |
| 20260507031714 | 75 | 309 | 0.0 | 3.0 | 0.00 | 0.00 | 0.00 | 39 | 1011.1 |
| 20260507031653 | 75 | 294 | 1.0 | 3.0 | 0.00 | 0.00 | 0.00 | 39 | 1011.1 |
| 20260507031201 | 76 | 260 | 1.0 | 3.0 | 0.00 | 0.00 | 0.00 | 39 | 1011.0 |
| 20260507031151 | 76 | 263 | 0.0 | 3.0 | 0.00 | 0.00 | 0.00 | 39 | 1010.9 |
| 20260507031129 | 76 | 281 | 1.0 | 3.0 | 0.00 | 0.00 | 0.00 | 39 | 1010.9 |
| 20260507031118 | 76 | 284 | 2.0 | 3.0 | 0.00 | 0.00 | 0.00 | 39 | 1010.9 |
| 20260507031105 | 76 | 257 | 1.0 | 3.0 | 0.00 | 0.00 | 0.00 | 39 | 1010.9 |
| 20260507031052 | 76 | 267 | 1.0 | 3.0 | 0.00 | 0.00 | 0.00 | 39 | 1010.9 |
| 20260507030553 | 76 | 273 | 0.0 | 4.0 | 0.00 | 0.00 | 0.00 | 38 | 1010.9 |
| 20260507030542 | 76 | 274 | 1.0 | 4.0 | 0.00 | 0.00 | 0.00 | 39 | 1010.9 |
| 20260507025702 | 76 | 265 | 1.0 | 5.0 | 0.00 | 0.00 | 0.00 | 38 | 1010.8 |
| 20260507025601 | 76 | 259 | 2.0 | 5.0 | 0.00 | 0.00 | 0.00 | 38 | 1010.7 |
| 20260507025502 | 76 | 246 | 3.0 | 6.0 | 0.00 | 0.00 | 0.00 | 38 | 1010.7 |
| 20260507025415 | 76 | 259 | 3.0 | 6.0 | 0.00 | 0.00 | 0.00 | 37 | 1010.7 |
| 20260507025306 | 76 | 275 | 3.0 | 6.0 | 0.00 | 0.00 | 0.00 | 37 | 1010.7 |
| 20260507025201 | 77 | 257 | 3.0 | 6.0 | 0.00 | 0.00 | 0.00 | 37 | 1010.7 |
| 20260507025102 | 77 | 254 | 3.0 | 6.0 | 0.00 | 0.00 | 0.00 | 37 | 1010.8 |
| 20260507025002 | 77 | 219 | 2.0 | 6.0 | 0.00 | 0.00 | 0.00 | 37 | 1010.7 |
| 20260507024914 | 77 | 269 | 3.0 | 6.0 | 0.00 | 0.00 | 0.00 | 37 | 1010.7 |
| 20260507024804 | 77 | 257 | 3.0 | 6.0 | 0.00 | 0.00 | 0.00 | 37 | 1010.7 |
| 20260507024702 | 77 | 264 | 3.0 | 6.0 | 0.00 | 0.00 | 0.00 | 37 | 1010.7 |
| 20260507024602 | 77 | 252 | 2.0 | 6.0 | 0.00 | 0.00 | 0.00 | 36 | 1010.8 |
| 20260507024503 | 77 | 252 | 2.0 | 4.0 | 0.00 | 0.00 | 0.00 | 36 | 1010.8 |
| 20260507024413 | 77 | 273 | 2.0 | 3.0 | 0.00 | 0.00 | 0.00 | 37 | 1010.8 |
| 20260507024302 | 77 | 244 | 2.0 | 4.0 | 0.00 | 0.00 | 0.00 | 36 | 1010.7 |
| 20260507024204 | 77 | 267 | 2.0 | 4.0 | 0.00 | 0.00 | 0.00 | 36 | 1010.7 |
| 20260507024102 | 77 | 286 | 1.0 | 4.0 | 0.00 | 0.00 | 0.00 | 36 | 1010.8 |
| 20260507024000 | 77 | 277 | 2.0 | 4.0 | 0.00 | 0.00 | 0.00 | 36 | 1010.8 |
| 20260507023911 | 77 | 266 | 2.0 | 6.0 | 0.00 | 0.00 | 0.00 | 36 | 1010.8 |
| 20260507023805 | 77 | 260 | 2.0 | 6.0 | 0.00 | 0.00 | 0.00 | 36 | 1010.7 |
| 20260507023701 | 77 | 315 | 2.0 | 6.0 | 0.00 | 0.00 | 0.00 | 36 | 1010.7 |
| 20260507023602 | 77 | 320 | 2.0 | 6.0 | 0.00 | 0.00 | 0.00 | 36 | 1010.7 |
| 20260507023502 | 78 | 252 | 2.0 | 6.0 | 0.00 | 0.00 | 0.00 | 36 | 1010.7 |
| 20260507023409 | 78 | 273 | 2.0 | 6.0 | 0.00 | 0.00 | 0.00 | 36 | 1010.7 |
| 20260507023312 | 78 | 287 | 2.0 | 6.0 | 0.00 | 0.00 | 0.00 | 35 | 1010.6 |
| 20260507023201 | 78 | 250 | 2.0 | 6.0 | 0.00 | 0.00 | 0.00 | 36 | 1010.7 |
| 20260507023103 | 78 | 281 | 2.0 | 6.0 | 0.00 | 0.00 | 0.00 | 35 | 1010.7 |
| 20260507023001 | 78 | 274 | 1.0 | 6.0 | 0.00 | 0.00 | 0.00 | 35 | 1010.7 |
| 20260507022908 | 78 | 276 | 1.0 | 4.0 | 0.00 | 0.00 | 0.00 | 35 | 1010.7 |
| 20260507022801 | 78 | 225 | 1.0 | 4.0 | 0.00 | 0.00 | 0.00 | 35 | 1010.6 |
| 20260507022725 | 78 | 296 | 2.0 | 4.0 | 0.00 | 0.00 | 0.00 | 35 | 1010.6 |
| 20260507022714 | 78 | 349 | 2.0 | 5.0 | 0.00 | 0.00 | 0.00 | 35 | 1010.6 |
| 20260507022406 | 78 | 298 | 1.0 | 7.0 | 0.00 | 0.00 | 0.00 | 35 | 1010.6 |
| 20260507022252 | 78 | 274 | 1.0 | 7.0 | 0.00 | 0.00 | 0.00 | 34 | 1010.7 |
| 20260507022142 | 78 | 304 | 2.0 | 8.0 | 0.00 | 0.00 | 0.00 | 35 | 1010.7 |
| 20260507022051 | 78 | 252 | 2.0 | 8.0 | 0.00 | 0.00 | 0.00 | 35 | 1010.7 |
| 20260507022035 | 78 | 275 | 2.0 | 8.0 | 0.00 | 0.00 | 0.00 | 35 | 1010.6 |
| 20260507021920 | 78 | 279 | 2.0 | 9.0 | 0.00 | 0.00 | 0.00 | 35 | 1010.6 |
| 20260507021814 | 78 | 279 | 3.0 | 11.0 | 0.00 | 0.00 | 0.00 | 34 | 1010.6 |
| 20260507021703 | 78 | 285 | 3.0 | 11.0 | 0.00 | 0.00 | 0.00 | 34 | 1010.6 |
| 20260507021650 | 78 | 334 | 4.0 | 11.0 | 0.00 | 0.00 | 0.00 | 34 | 1010.7 |
| 20260507021638 | 78 | 287 | 4.0 | 11.0 | 0.00 | 0.00 | 0.00 | 34 | 1010.6 |
| 20260507021355 | 78 | 310 | 3.0 | 11.0 | 0.00 | 0.00 | 0.00 | 34 | 1010.6 |
| 20260507021033 | 79 | 302 | 5.0 | 11.0 | 0.00 | 0.00 | 0.00 | 34 | 1010.6 |
| 20260507020933 | 79 | 268 | 4.0 | 11.0 | 0.00 | 0.00 | 0.00 | 34 | 1010.6 |
| 20260507020832 | 79 | 338 | 4.0 | 8.0 | 0.00 | 0.00 | 0.00 | 34 | 1010.6 |
| 20260507020729 | 79 | 12 | 4.0 | 8.0 | 0.00 | 0.00 | 0.00 | 34 | 1010.5 |
| 20260507020629 | 79 | 289 | 3.0 | 8.0 | 0.00 | 0.00 | 0.00 | 33 | 1010.5 |
| 20260507020529 | 79 | 266 | 4.0 | 8.0 | 0.00 | 0.00 | 0.00 | 34 | 1010.5 |
| 20260507020431 | 79 | 281 | 4.0 | 8.0 | 0.00 | 0.00 | 0.00 | 34 | 1010.5 |
| 20260507020329 | 79 | 5 | 4.0 | 8.0 | 0.00 | 0.00 | 0.00 | 33 | 1010.4 |
| 20260507020304 | 79 | 319 | 4.0 | 8.0 | 0.00 | 0.00 | 0.00 | 34 | 1010.4 |
| 20260507020219 | 79 | 352 | 4.0 | 8.0 | 0.00 | 0.00 | 0.00 | 34 | 1010.4 |
| 20260507020206 | 79 | 346 | 4.0 | 8.0 | 0.00 | 0.00 | 0.00 | 34 | 1010.5 |
| 20260507020156 | 79 | 316 | 3.0 | 9.0 | 0.00 | 0.00 | 0.00 | 34 | 1010.4 |
| 20260507020131 | 79 | 0 | 3.0 | 9.0 | 0.00 | 0.00 | 0.00 | 35 | 1010.4 |
| 20260507015901 | 79 | 277 | 3.0 | 9.0 | 0.00 | 0.00 | 0.00 | 37 | 1010.4 |
| 20260507015629 | 79 | 342 | 2.0 | 9.0 | 0.00 | 0.00 | 0.00 | 37 | 1010.3 |
| 20260507015345 | 79 | 15 | 4.0 | 9.0 | 0.00 | 0.00 | 0.00 | 39 | 1010.3 |
| 20260507015334 | 79 | 0 | 3.0 | 9.0 | 0.00 | 0.00 | 0.00 | 41 | 1010.3 |
| 20260507015101 | 79 | 348 | 0.0 | 3.0 | 0.00 | 0.00 | 0.00 | 45 | 1010.3 |
| 20260507014717 | 79 | 193 | 1.0 | 3.0 | 0.00 | 0.00 | 0.00 | 44 | 1010.2 |
| 20260507014644 | 79 | 215 | 1.0 | 4.0 | 0.00 | 0.00 | 0.00 | 45 | 1010.2 |
| 20260507014636 | 79 | 220 | 1.0 | 4.0 | 0.00 | 0.00 | 0.00 | 45 | 1010.2 |